Time,TemperatureF,DewpointF,PressureIn,WindDirection,WindDirectionDegrees,WindSpeedMPH,WindSpeedGustMPH,Humidity,HourlyPrecipIn,Conditions,Clouds,dailyrainin,SoftwareType,DateUTC
2013-02-23 00:00:00,32.5,31.0,29.83,SSW,205,7.0,15.0,94,0.02,,---,0.03,VWS V14.00,2013-02-23 05:00:00,
2013-02-23 00:05:00,32.5,30.7,29.83,SSW,213,0.0,8.0,93,0.01,,---,0.00,VWS V14.00,2013-02-23 05:05:00,
2013-02-23 00:10:00,32.5,30.7,29.83,SW,229,6.0,13.0,93,0.01,,---,0.00,VWS V14.00,2013-02-23 05:10:00,
2013-02-23 00:15:00,32.5,30.7,29.83,SW,224,7.0,14.0,93,0.01,,---,0.00,VWS V14.00,2013-02-23 05:15:00,
2013-02-23 00:20:00,32.5,30.7,29.83,SSW,208,9.0,14.0,93,0.01,,---,0.00,VWS V14.00,2013-02-23 05:20:00,
2013-02-23 00:25:00,32.5,30.4,29.83,SW,216,13.0,14.0,92,0.01,,---,0.00,VWS V14.00,2013-02-23 05:25:00,
2013-02-23 00:30:00,32.5,30.4,29.83,WNW,282,2.0,14.0,92,0.01,,---,0.00,VWS V14.00,2013-02-23 05:30:00,
2013-02-23 00:35:00,32.5,30.4,29.83,SSW,202,4.0,15.0,92,0.01,,---,0.00,VWS V14.00,2013-02-23 05:35:00,
2013-02-23 00:40:00,32.5,30.4,29.83,SSW,210,4.0,15.0,92,0.01,,---,0.00,VWS V14.00,2013-02-23 05:40:00,
2013-02-23 00:41:00,32.5,30.4,29.83,SSW,212,4.0,15.0,92,0.01,,---,0.00,VWS V14.00,2013-02-23 05:41:00,
2013-02-23 00:45:00,32.5,30.2,29.83,SW,224,4.0,15.0,91,0.01,,---,0.00,VWS V14.00,2013-02-23 05:45:00,
2013-02-23 00:46:00,32.5,30.2,29.83,SSW,199,1.0,15.0,91,0.01,,---,0.00,VWS V14.00,2013-02-23 05:46:00,
2013-02-23 00:50:00,32.5,30.2,29.83,SSW,199,2.0,15.0,91,0.01,,---,0.00,VWS V14.00,2013-02-23 05:50:00,
2013-02-23 00:51:00,32.5,30.2,29.83,SW,224,8.0,15.0,91,0.01,,---,0.00,VWS V14.00,2013-02-23 05:51:00,
2013-02-23 00:55:00,32.4,30.1,29.83,WSW,240,2.0,15.0,91,0.01,,---,0.00,VWS V14.00,2013-02-23 05:55:00,
2013-02-23 00:56:00,32.4,30.1,29.83,SW,230,6.0,15.0,91,0.01,,---,0.00,VWS V14.00,2013-02-23 05:56:00,
2013-02-23 01:00:00,32.4,29.8,29.83,SW,217,8.0,15.0,90,0.01,,---,0.00,VWS V14.00,2013-02-23 06:00:00,
2013-02-23 01:01:00,32.4,29.8,29.83,SW,224,4.0,8.0,90,0.00,,---,0.00,VWS V14.00,2013-02-23 06:01:00,
2013-02-23 01:05:00,32.4,29.8,29.83,SW,230,4.0,10.0,90,0.00,,---,0.00,VWS V14.00,2013-02-23 06:05:00,
2013-02-23 01:06:00,32.4,29.8,29.83,SW,219,9.0,10.0,90,0.00,,---,0.00,VWS V14.00,2013-02-23 06:06:00,
2013-02-23 01:10:00,32.4,29.8,29.83,SW,219,4.0,10.0,90,0.00,,---,0.00,VWS V14.00,2013-02-23 06:10:00,
2013-02-23 01:11:00,32.4,29.8,29.83,SSW,213,4.0,10.0,90,0.00,,---,0.00,VWS V14.00,2013-02-23 06:11:00,
2013-02-23 01:15:00,32.4,29.8,29.83,WSW,241,2.0,10.0,90,0.00,,---,0.00,VWS V14.00,2013-02-23 06:15:00,
2013-02-23 01:16:00,32.4,29.8,29.83,SW,227,6.0,10.0,90,0.00,,---,0.00,VWS V14.00,2013-02-23 06:16:00,
2013-02-23 01:21:00,32.4,29.5,29.83,SSW,212,7.0,10.0,89,0.00,,---,0.00,VWS V14.00,2013-02-23 06:21:00,
2013-02-23 01:22:00,32.4,29.5,29.83,SSW,212,8.0,10.0,89,0.00,,---,0.00,VWS V14.00,2013-02-23 06:22:00,
2013-02-23 01:26:00,32.4,29.5,29.83,SW,223,6.0,10.0,89,0.00,,---,0.00,VWS V14.00,2013-02-23 06:26:00,
2013-02-23 01:27:00,32.4,29.5,29.83,SSW,195,6.0,10.0,89,0.00,,---,0.00,VWS V14.00,2013-02-23 06:27:00,
2013-02-23 01:31:00,32.4,29.5,29.82,SW,215,4.0,11.0,89,0.00,,---,0.00,VWS V14.00,2013-02-23 06:31:00,
2013-02-23 01:32:00,32.4,29.5,29.82,SW,230,8.0,11.0,89,0.00,,---,0.00,VWS V14.00,2013-02-23 06:32:00,
2013-02-23 01:36:00,32.2,29.3,29.82,WSW,237,7.0,11.0,89,0.00,,---,0.00,VWS V14.00,2013-02-23 06:36:00,
2013-02-23 01:37:00,32.2,29.3,29.82,SSW,198,8.0,11.0,89,0.00,,---,0.00,VWS V14.00,2013-02-23 06:37:00,
2013-02-23 01:38:00,32.2,29.3,29.82,SSW,198,11.0,11.0,89,0.00,,---,0.00,VWS V14.00,2013-02-23 06:38:00,
2013-02-23 01:41:00,32.2,29.0,29.82,SW,230,7.0,16.0,88,0.00,,---,0.00,VWS V14.00,2013-02-23 06:41:00,
2013-02-23 01:42:00,32.2,29.0,29.82,SW,217,13.0,16.0,88,0.00,,---,0.00,VWS V14.00,2013-02-23 06:42:00,
2013-02-23 01:43:00,32.2,29.0,29.82,SSW,199,9.0,16.0,88,0.00,,---,0.00,VWS V14.00,2013-02-23 06:43:00,
2013-02-23 01:46:00,32.2,29.0,29.82,SW,216,6.0,16.0,88,0.00,,---,0.00,VWS V14.00,2013-02-23 06:46:00,
2013-02-23 01:47:00,32.2,28.8,29.82,SW,226,4.0,16.0,87,0.00,,---,0.00,VWS V14.00,2013-02-23 06:47:00,
2013-02-23 01:48:00,32.2,28.8,29.82,SW,222,7.0,16.0,87,0.00,,---,0.00,VWS V14.00,2013-02-23 06:48:00,
2013-02-23 01:51:00,32.2,28.8,29.82,SSW,212,9.0,16.0,87,0.00,,---,0.00,VWS V14.00,2013-02-23 06:51:00,
2013-02-23 01:52:00,32.2,28.8,29.82,SW,230,11.0,16.0,87,0.00,,---,0.00,VWS V14.00,2013-02-23 06:52:00,
2013-02-23 01:53:00,32.2,28.8,29.82,WSW,241,8.0,16.0,87,0.00,,---,0.00,VWS V14.00,2013-02-23 06:53:00,
2013-02-23 01:56:00,32.2,28.5,29.82,SW,232,4.0,16.0,86,0.00,,---,0.00,VWS V14.00,2013-02-23 06:56:00,
2013-02-23 01:57:00,32.2,28.5,29.82,SW,227,6.0,16.0,86,0.00,,---,0.00,VWS V14.00,2013-02-23 06:57:00,
2013-02-23 01:58:00,32.2,28.5,29.82,SW,216,10.0,16.0,86,0.00,,---,0.00,VWS V14.00,2013-02-23 06:58:00,
2013-02-23 02:01:00,32.2,28.5,29.82,SSW,210,4.0,11.0,86,0.00,,---,0.00,VWS V14.00,2013-02-23 07:01:00,
2013-02-23 02:02:00,32.2,28.5,29.82,SSW,205,7.0,11.0,86,0.00,,---,0.00,VWS V14.00,2013-02-23 07:02:00,
2013-02-23 02:03:00,32.2,28.5,29.82,SW,220,4.0,11.0,86,0.00,,---,0.00,VWS V14.00,2013-02-23 07:03:00,
2013-02-23 02:06:00,32.2,28.2,29.82,SSW,205,6.0,11.0,85,0.00,,---,0.00,VWS V14.00,2013-02-23 07:06:00,
2013-02-23 02:07:00,32.2,28.2,29.82,SW,215,7.0,11.0,85,0.00,,---,0.00,VWS V14.00,2013-02-23 07:07:00,
2013-02-23 02:08:00,32.2,28.2,29.82,SW,222,9.0,11.0,85,0.00,,---,0.00,VWS V14.00,2013-02-23 07:08:00,
2013-02-23 02:12:00,32.1,28.1,29.82,SW,216,7.0,11.0,85,0.00,,---,0.00,VWS V14.00,2013-02-23 07:12:00,
2013-02-23 02:13:00,32.1,28.1,29.82,WSW,240,11.0,11.0,85,0.00,,---,0.00,VWS V14.00,2013-02-23 07:13:00,
2013-02-23 02:17:00,32.1,27.8,29.82,WNW,294,6.0,15.0,84,0.00,,---,0.00,VWS V14.00,2013-02-23 07:17:00,
2013-02-23 02:18:00,32.1,27.8,29.82,SW,230,10.0,15.0,84,0.00,,---,0.00,VWS V14.00,2013-02-23 07:18:00,
2013-02-23 02:22:00,32.1,27.8,29.82,SW,232,8.0,15.0,84,0.00,,---,0.00,VWS V14.00,2013-02-23 07:22:00,
2013-02-23 02:23:00,32.1,27.8,29.82,SSW,206,9.0,15.0,84,0.00,,---,0.00,VWS V14.00,2013-02-23 07:23:00,
2013-02-23 02:27:00,32.1,27.5,29.82,SW,227,6.0,15.0,83,0.00,,---,0.00,VWS V14.00,2013-02-23 07:27:00,
2013-02-23 02:28:00,32.1,27.5,29.82,WSW,239,9.0,15.0,83,0.00,,---,0.00,VWS V14.00,2013-02-23 07:28:00,
2013-02-23 02:32:00,31.9,27.0,29.82,WSW,239,9.0,15.0,82,0.00,,---,0.00,VWS V14.00,2013-02-23 07:32:00,
2013-02-23 02:33:00,31.9,27.0,29.82,SW,215,11.0,15.0,82,0.00,,---,0.00,VWS V14.00,2013-02-23 07:33:00,
2013-02-23 02:37:00,31.9,27.0,29.82,WSW,237,7.0,15.0,82,0.00,,---,0.00,VWS V14.00,2013-02-23 07:37:00,
2013-02-23 02:38:00,31.9,26.7,29.82,West,265,4.0,15.0,81,0.00,,---,0.00,VWS V14.00,2013-02-23 07:38:00,
2013-02-23 02:42:00,31.9,26.7,29.82,SW,219,11.0,15.0,81,0.00,,---,0.00,VWS V14.00,2013-02-23 07:42:00,
2013-02-23 02:43:00,31.9,26.4,29.82,SSW,203,11.0,15.0,80,0.00,,---,0.00,VWS V14.00,2013-02-23 07:43:00,
2013-02-23 02:48:00,31.9,26.4,29.82,SW,232,6.0,15.0,80,0.00,,---,0.00,VWS V14.00,2013-02-23 07:48:00,
2013-02-23 02:53:00,31.9,26.4,29.82,West,264,2.0,15.0,80,0.00,,---,0.00,VWS V14.00,2013-02-23 07:53:00,
2013-02-23 02:58:00,31.8,26.4,29.82,SSW,205,10.0,15.0,80,0.00,,---,0.00,VWS V14.00,2013-02-23 07:58:00,
2013-02-23 03:03:00,31.8,26.0,29.82,SSW,212,7.0,16.0,79,0.00,,---,0.00,VWS V14.00,2013-02-23 08:03:00,
2013-02-23 03:04:00,31.8,26.0,29.82,SSW,212,11.0,16.0,79,0.00,,---,0.00,VWS V14.00,2013-02-23 08:04:00,
2013-02-23 03:08:00,31.8,25.7,29.82,WSW,237,13.0,18.0,78,0.00,,---,0.00,VWS V14.00,2013-02-23 08:08:00,
2013-02-23 03:09:00,31.8,25.7,29.82,SSW,203,11.0,18.0,78,0.00,,---,0.00,VWS V14.00,2013-02-23 08:09:00,
2013-02-23 03:13:00,31.6,25.2,29.82,WSW,247,8.0,18.0,77,0.00,,---,0.00,VWS V14.00,2013-02-23 08:13:00,
2013-02-23 03:14:00,31.6,25.2,29.82,SW,234,22.0,22.0,77,0.00,,---,0.00,VWS V14.00,2013-02-23 08:14:00,
2013-02-23 03:18:00,31.6,24.9,29.81,SW,227,10.0,22.0,76,0.00,,---,0.00,VWS V14.00,2013-02-23 08:18:00,
2013-02-23 03:19:00,31.6,24.9,29.81,SW,233,9.0,22.0,76,0.00,,---,0.00,VWS V14.00,2013-02-23 08:19:00,
2013-02-23 03:24:00,31.5,24.8,29.81,SSW,210,8.0,22.0,76,0.00,,---,0.00,VWS V14.00,2013-02-23 08:24:00,
2013-02-23 03:29:00,31.5,24.8,29.81,WSW,251,18.0,22.0,76,0.00,,---,0.00,VWS V14.00,2013-02-23 08:29:00,
2013-02-23 03:34:00,31.3,24.9,29.82,SSW,195,8.0,24.0,77,0.00,,---,0.00,VWS V14.00,2013-02-23 08:34:00,
2013-02-23 03:39:00,31.2,24.8,29.82,South,188,13.0,24.0,77,0.00,,---,0.00,VWS V14.00,2013-02-23 08:39:00,
2013-02-23 03:40:00,31.2,24.8,29.82,West,272,13.0,24.0,77,0.00,,---,0.00,VWS V14.00,2013-02-23 08:40:00,
2013-02-23 03:44:00,30.9,24.2,29.82,SSW,210,13.0,24.0,76,0.00,,---,0.00,VWS V14.00,2013-02-23 08:44:00,
2013-02-23 03:45:00,30.9,24.2,29.82,SSW,206,16.0,24.0,76,0.00,,---,0.00,VWS V14.00,2013-02-23 08:45:00,
2013-02-23 03:49:00,30.7,23.4,29.82,SW,222,10.0,24.0,74,0.00,,---,0.00,VWS V14.00,2013-02-23 08:49:00,
2013-02-23 03:50:00,30.7,23.4,29.82,SW,222,10.0,24.0,74,0.00,,---,0.00,VWS V14.00,2013-02-23 08:50:00,
2013-02-23 03:55:00,30.7,23.1,29.82,SSW,205,11.0,24.0,73,0.00,,---,0.00,VWS V14.00,2013-02-23 08:55:00,
2013-02-23 04:00:00,30.6,23.0,29.81,SSW,210,11.0,24.0,73,0.00,,---,0.00,VWS V14.00,2013-02-23 09:00:00,
2013-02-23 04:05:00,30.4,22.5,29.81,WNW,282,9.0,18.0,72,0.00,,---,0.00,VWS V14.00,2013-02-23 09:05:00,
2013-02-23 04:10:00,30.3,22.4,29.81,SW,224,6.0,18.0,72,0.00,,---,0.00,VWS V14.00,2013-02-23 09:10:00,
2013-02-23 04:15:00,30.3,22.4,29.81,SSW,213,7.0,18.0,72,0.00,,---,0.00,VWS V14.00,2013-02-23 09:15:00,
2013-02-23 04:20:00,30.1,22.2,29.81,SW,220,10.0,18.0,72,0.00,,---,0.00,VWS V14.00,2013-02-23 09:20:00,
2013-02-23 04:21:00,30.1,22.2,29.81,SW,226,17.0,18.0,72,0.00,,---,0.00,VWS V14.00,2013-02-23 09:21:00,
2013-02-23 04:25:00,30.0,22.1,29.81,SW,215,8.0,18.0,72,0.00,,---,0.00,VWS V14.00,2013-02-23 09:25:00,
2013-02-23 04:26:00,30.0,22.1,29.81,WSW,244,9.0,18.0,72,0.00,,---,0.00,VWS V14.00,2013-02-23 09:26:00,
2013-02-23 04:30:00,30.0,22.1,29.82,SW,216,14.0,18.0,72,0.00,,---,0.00,VWS V14.00,2013-02-23 09:30:00,
2013-02-23 04:31:00,30.0,22.1,29.82,SW,236,6.0,18.0,72,0.00,,---,0.00,VWS V14.00,2013-02-23 09:31:00,
2013-02-23 04:35:00,29.8,21.6,29.82,SSW,213,6.0,18.0,71,0.00,,---,0.00,VWS V14.00,2013-02-23 09:35:00,
2013-02-23 04:36:00,29.8,21.6,29.82,SW,223,11.0,18.0,71,0.00,,---,0.00,VWS V14.00,2013-02-23 09:36:00,
2013-02-23 04:40:00,29.8,21.6,29.82,SW,234,7.0,18.0,71,0.00,,---,0.00,VWS V14.00,2013-02-23 09:40:00,
2013-02-23 04:42:00,29.8,21.6,29.82,West,260,8.0,18.0,71,0.00,,---,0.00,VWS V14.00,2013-02-23 09:42:00,
2013-02-23 04:45:00,29.7,21.5,29.82,SSW,205,10.0,18.0,71,0.00,,---,0.00,VWS V14.00,2013-02-23 09:45:00,
2013-02-23 04:47:00,29.7,21.8,29.82,WSW,240,2.0,18.0,72,0.00,,---,0.00,VWS V14.00,2013-02-23 09:47:00,
2013-02-23 04:50:00,29.7,21.8,29.82,SSW,210,8.0,18.0,72,0.00,,---,0.00,VWS V14.00,2013-02-23 09:50:00,
2013-02-23 04:52:00,29.5,21.6,29.82,West,263,11.0,18.0,72,0.00,,---,0.00,VWS V14.00,2013-02-23 09:52:00,
2013-02-23 04:55:00,29.5,21.6,29.82,WSW,239,8.0,18.0,72,0.00,,---,0.00,VWS V14.00,2013-02-23 09:55:00,
2013-02-23 04:56:00,29.5,21.6,29.82,West,268,8.0,18.0,72,0.00,,---,0.00,VWS V14.00,2013-02-23 09:56:00,
2013-02-23 04:57:00,29.4,21.5,29.82,SW,236,8.0,18.0,72,0.00,,---,0.00,VWS V14.00,2013-02-23 09:57:00,
2013-02-23 05:00:00,29.4,21.5,29.82,SW,236,8.0,18.0,72,0.00,,---,0.00,VWS V14.00,2013-02-23 10:00:00,
2013-02-23 05:01:00,29.4,21.5,29.82,West,271,11.0,15.0,72,0.00,,---,0.00,VWS V14.00,2013-02-23 10:01:00,
2013-02-23 05:02:00,29.4,21.5,29.82,SW,233,8.0,15.0,72,0.00,,---,0.00,VWS V14.00,2013-02-23 10:02:00,
2013-02-23 05:05:00,29.4,21.5,29.82,SW,223,6.0,15.0,72,0.00,,---,0.00,VWS V14.00,2013-02-23 10:05:00,
2013-02-23 05:06:00,29.3,21.4,29.82,WSW,237,10.0,15.0,72,0.00,,---,0.00,VWS V14.00,2013-02-23 10:06:00,
2013-02-23 05:07:00,29.3,21.4,29.82,SW,233,10.0,15.0,72,0.00,,---,0.00,VWS V14.00,2013-02-23 10:07:00,
2013-02-23 05:10:00,29.3,21.4,29.82,WSW,237,8.0,15.0,72,0.00,,---,0.00,VWS V14.00,2013-02-23 10:10:00,
2013-02-23 05:11:00,29.3,21.4,29.82,WSW,237,8.0,15.0,72,0.00,,---,0.00,VWS V14.00,2013-02-23 10:11:00,
2013-02-23 05:12:00,29.3,21.4,29.82,SSW,212,7.0,15.0,72,0.00,,---,0.00,VWS V14.00,2013-02-23 10:12:00,
2013-02-23 05:15:00,29.3,21.4,29.83,SW,222,6.0,15.0,72,0.00,,---,0.00,VWS V14.00,2013-02-23 10:15:00,
2013-02-23 05:16:00,29.3,21.4,29.83,SW,232,2.0,15.0,72,0.00,,---,0.00,VWS V14.00,2013-02-23 10:16:00,
2013-02-23 05:17:00,29.3,21.7,29.83,SW,232,4.0,15.0,73,0.00,,---,0.00,VWS V14.00,2013-02-23 10:17:00,
2013-02-23 05:21:00,29.3,21.7,29.83,SW,226,0.0,15.0,73,0.00,,---,0.00,VWS V14.00,2013-02-23 10:21:00,
2013-02-23 05:23:00,29.1,21.5,29.83,SW,230,7.0,15.0,73,0.00,,---,0.00,VWS V14.00,2013-02-23 10:23:00,
2013-02-23 05:26:00,29.1,21.5,29.83,WSW,243,1.0,15.0,73,0.00,,---,0.00,VWS V14.00,2013-02-23 10:26:00,
2013-02-23 05:28:00,29.1,21.5,29.83,SW,232,6.0,15.0,73,0.00,,---,0.00,VWS V14.00,2013-02-23 10:28:00,
2013-02-23 05:31:00,29.1,21.5,29.83,SW,219,9.0,15.0,73,0.00,,---,0.00,VWS V14.00,2013-02-23 10:31:00,
2013-02-23 05:33:00,29.0,21.4,29.83,SW,230,9.0,17.0,73,0.00,,---,0.00,VWS V14.00,2013-02-23 10:33:00,
2013-02-23 05:36:00,29.0,21.1,29.83,SW,233,10.0,17.0,72,0.00,,---,0.00,VWS V14.00,2013-02-23 10:36:00,
2013-02-23 05:38:00,29.0,21.1,29.83,West,275,6.0,17.0,72,0.00,,---,0.00,VWS V14.00,2013-02-23 10:38:00,
2013-02-23 05:41:00,29.0,21.1,29.83,SW,222,7.0,17.0,72,0.00,,---,0.00,VWS V14.00,2013-02-23 10:41:00,
2013-02-23 05:42:00,29.0,21.1,29.83,WSW,258,6.0,17.0,72,0.00,,---,0.00,VWS V14.00,2013-02-23 10:42:00,
2013-02-23 05:43:00,29.0,21.1,29.83,SW,234,4.0,17.0,72,0.00,,---,0.00,VWS V14.00,2013-02-23 10:43:00,
2013-02-23 05:46:00,29.0,21.1,29.83,SSW,195,6.0,17.0,72,0.00,,---,0.00,VWS V14.00,2013-02-23 10:46:00,
2013-02-23 05:47:00,29.0,21.1,29.83,SSW,212,11.0,17.0,72,0.00,,---,0.00,VWS V14.00,2013-02-23 10:47:00,
2013-02-23 05:48:00,29.0,21.1,29.83,SSW,213,2.0,17.0,72,0.00,,---,0.00,VWS V14.00,2013-02-23 10:48:00,
2013-02-23 05:51:00,29.0,21.1,29.83,SW,229,6.0,17.0,72,0.00,,---,0.00,VWS V14.00,2013-02-23 10:51:00,
2013-02-23 05:52:00,29.0,21.1,29.83,SW,223,8.0,17.0,72,0.00,,---,0.00,VWS V14.00,2013-02-23 10:52:00,
2013-02-23 05:53:00,29.0,21.1,29.83,SW,217,4.0,17.0,72,0.00,,---,0.00,VWS V14.00,2013-02-23 10:53:00,
2013-02-23 05:56:00,29.0,21.1,29.83,SW,222,1.0,17.0,72,0.00,,---,0.00,VWS V14.00,2013-02-23 10:56:00,
2013-02-23 05:57:00,29.0,21.1,29.83,SW,236,6.0,17.0,72,0.00,,---,0.00,VWS V14.00,2013-02-23 10:57:00,
2013-02-23 05:58:00,28.8,20.9,29.83,SSW,208,7.0,17.0,72,0.00,,---,0.00,VWS V14.00,2013-02-23 10:58:00,
2013-02-23 06:01:00,28.8,20.9,29.83,SW,222,6.0,10.0,72,0.00,,---,0.00,VWS V14.00,2013-02-23 11:01:00,
2013-02-23 06:02:00,28.8,20.9,29.83,SSW,203,8.0,11.0,72,0.00,,---,0.00,VWS V14.00,2013-02-23 11:02:00,
2013-02-23 06:04:00,28.8,20.9,29.83,SW,222,7.0,11.0,72,0.00,,---,0.00,VWS V14.00,2013-02-23 11:04:00,
2013-02-23 06:06:00,28.8,20.9,29.83,SW,224,10.0,11.0,72,0.00,,---,0.00,VWS V14.00,2013-02-23 11:06:00,
2013-02-23 06:07:00,28.8,20.9,29.83,SW,219,10.0,11.0,72,0.00,,---,0.00,VWS V14.00,2013-02-23 11:07:00,
2013-02-23 06:09:00,28.8,20.9,29.83,SSW,213,10.0,13.0,72,0.00,,---,0.00,VWS V14.00,2013-02-23 11:09:00,
2013-02-23 06:11:00,28.8,20.9,29.83,SSW,202,6.0,13.0,72,0.00,,---,0.00,VWS V14.00,2013-02-23 11:11:00,
2013-02-23 06:12:00,28.8,20.9,29.83,SW,215,4.0,13.0,72,0.00,,---,0.00,VWS V14.00,2013-02-23 11:12:00,
2013-02-23 06:14:00,28.8,20.9,29.83,SW,226,2.0,13.0,72,0.00,,---,0.00,VWS V14.00,2013-02-23 11:14:00,
2013-02-23 06:16:00,28.8,20.9,29.83,SW,226,4.0,13.0,72,0.00,,---,0.00,VWS V14.00,2013-02-23 11:16:00,
2013-02-23 06:17:00,28.8,20.9,29.83,SSW,198,4.0,13.0,72,0.00,,---,0.00,VWS V14.00,2013-02-23 11:17:00,
2013-02-23 06:19:00,28.7,20.8,29.83,SW,229,6.0,13.0,72,0.00,,---,0.00,VWS V14.00,2013-02-23 11:19:00,
2013-02-23 06:21:00,28.7,20.8,29.83,SW,223,10.0,13.0,72,0.00,,---,0.00,VWS V14.00,2013-02-23 11:21:00,
2013-02-23 06:22:00,28.7,20.8,29.83,SW,215,10.0,13.0,72,0.00,,---,0.00,VWS V14.00,2013-02-23 11:22:00,
2013-02-23 06:24:00,28.7,20.8,29.83,SW,219,10.0,13.0,72,0.00,,---,0.00,VWS V14.00,2013-02-23 11:24:00,
2013-02-23 06:26:00,28.7,20.8,29.83,SSW,210,4.0,14.0,72,0.00,,---,0.00,VWS V14.00,2013-02-23 11:26:00,
2013-02-23 06:27:00,28.7,21.1,29.83,SSW,210,2.0,14.0,73,0.00,,---,0.00,VWS V14.00,2013-02-23 11:27:00,
2013-02-23 06:29:00,28.7,21.1,29.83,SW,217,10.0,14.0,73,0.00,,---,0.00,VWS V14.00,2013-02-23 11:29:00,
2013-02-23 06:32:00,28.5,20.6,29.83,SW,222,4.0,15.0,72,0.00,,---,0.00,VWS V14.00,2013-02-23 11:32:00,
2013-02-23 06:34:00,28.5,20.6,29.83,SW,222,8.0,15.0,72,0.00,,---,0.00,VWS V14.00,2013-02-23 11:34:00,
2013-02-23 06:37:00,28.5,20.6,29.83,West,270,10.0,15.0,72,0.00,,---,0.00,VWS V14.00,2013-02-23 11:37:00,
2013-02-23 06:39:00,28.5,20.6,29.83,SSW,199,9.0,18.0,72,0.00,,---,0.00,VWS V14.00,2013-02-23 11:39:00,
2013-02-23 06:42:00,28.5,20.6,29.83,WSW,243,8.0,18.0,72,0.00,,---,0.00,VWS V14.00,2013-02-23 11:42:00,
2013-02-23 06:44:00,28.4,20.5,29.83,SW,219,9.0,18.0,72,0.00,,---,0.00,VWS V14.00,2013-02-23 11:44:00,
2013-02-23 06:47:00,28.4,20.5,29.83,SW,220,7.0,18.0,72,0.00,,---,0.00,VWS V14.00,2013-02-23 11:47:00,
2013-02-23 06:49:00,28.4,20.5,29.83,SW,230,9.0,18.0,72,0.00,,---,0.00,VWS V14.00,2013-02-23 11:49:00,
2013-02-23 06:52:00,28.4,20.9,29.83,SW,219,8.0,18.0,73,0.00,,---,0.00,VWS V14.00,2013-02-23 11:52:00,
2013-02-23 06:54:00,28.4,20.9,29.83,SSW,202,9.0,18.0,73,0.00,,---,0.00,VWS V14.00,2013-02-23 11:54:00,
2013-02-23 06:57:00,28.2,20.4,29.83,SW,215,4.0,18.0,72,0.00,,---,0.00,VWS V14.00,2013-02-23 11:57:00,
2013-02-23 06:59:00,28.2,20.4,29.83,SSW,212,9.0,18.0,72,0.00,,---,0.00,VWS V14.00,2013-02-23 11:59:00,
2013-02-23 07:02:00,28.2,20.4,29.84,SW,233,6.0,8.0,72,0.00,,---,0.00,VWS V14.00,2013-02-23 12:02:00,
2013-02-23 07:04:00,28.2,20.4,29.84,West,268,8.0,11.0,72,0.00,,---,0.00,VWS V14.00,2013-02-23 12:04:00,
2013-02-23 07:07:00,28.2,20.4,29.84,SW,216,8.0,11.0,72,0.00,,---,0.00,VWS V14.00,2013-02-23 12:07:00,
2013-02-23 07:09:00,28.1,20.2,29.84,SSW,212,7.0,14.0,72,0.00,,---,0.00,VWS V14.00,2013-02-23 12:09:00,
2013-02-23 07:12:00,28.1,20.2,29.84,SSW,212,15.0,15.0,72,0.00,,---,0.00,VWS V14.00,2013-02-23 12:12:00,
2013-02-23 07:13:00,28.1,20.2,29.84,SW,216,8.0,15.0,72,0.00,,---,0.00,VWS V14.00,2013-02-23 12:13:00,
2013-02-23 07:15:00,28.1,20.2,29.84,SW,220,9.0,15.0,72,0.00,,---,0.00,VWS V14.00,2013-02-23 12:15:00,
2013-02-23 07:17:00,28.1,20.2,29.84,WSW,251,7.0,15.0,72,0.00,,---,0.00,VWS V14.00,2013-02-23 12:17:00,
2013-02-23 07:18:00,28.1,20.2,29.84,SW,230,2.0,15.0,72,0.00,,---,0.00,VWS V14.00,2013-02-23 12:18:00,
2013-02-23 07:20:00,28.1,20.2,29.84,SW,232,4.0,15.0,72,0.00,,---,0.00,VWS V14.00,2013-02-23 12:20:00,
2013-02-23 07:22:00,28.1,20.2,29.84,SSW,205,2.0,15.0,72,0.00,,---,0.00,VWS V14.00,2013-02-23 12:22:00,
2013-02-23 07:23:00,28.1,20.2,29.84,SSW,205,2.0,15.0,72,0.00,,---,0.00,VWS V14.00,2013-02-23 12:23:00,
2013-02-23 07:25:00,27.9,20.4,29.84,SSW,206,6.0,15.0,73,0.00,,---,0.00,VWS V14.00,2013-02-23 12:25:00,
2013-02-23 07:28:00,27.9,20.4,29.84,SSW,205,11.0,15.0,73,0.00,,---,0.00,VWS V14.00,2013-02-23 12:28:00,
2013-02-23 07:30:00,27.9,20.4,29.84,SSW,206,9.0,16.0,73,0.00,,---,0.00,VWS V14.00,2013-02-23 12:30:00,
2013-02-23 07:33:00,27.9,20.4,29.84,SW,215,11.0,16.0,73,0.00,,---,0.00,VWS V14.00,2013-02-23 12:33:00,
2013-02-23 07:35:00,27.9,20.4,29.84,SSW,209,7.0,16.0,73,0.00,,---,0.00,VWS V14.00,2013-02-23 12:35:00,
2013-02-23 07:38:00,27.9,20.4,29.84,SW,226,4.0,16.0,73,0.00,,---,0.00,VWS V14.00,2013-02-23 12:38:00,
2013-02-23 07:40:00,27.9,20.4,29.84,WNW,282,4.0,16.0,73,0.00,,---,0.00,VWS V14.00,2013-02-23 12:40:00,
2013-02-23 07:43:00,27.9,20.4,29.84,SW,217,2.0,16.0,73,0.00,,---,0.00,VWS V14.00,2013-02-23 12:43:00,
2013-02-23 07:45:00,27.9,20.4,29.84,WSW,240,8.0,16.0,73,0.00,,---,0.00,VWS V14.00,2013-02-23 12:45:00,
2013-02-23 07:48:00,27.9,20.4,29.84,SW,216,8.0,16.0,73,0.00,,---,0.00,VWS V14.00,2013-02-23 12:48:00,
2013-02-23 07:50:00,27.9,20.4,29.84,SSW,203,7.0,16.0,73,0.00,,---,0.00,VWS V14.00,2013-02-23 12:50:00,
2013-02-23 07:53:00,27.9,20.4,29.84,SW,229,6.0,16.0,73,0.00,,---,0.00,VWS V14.00,2013-02-23 12:53:00,
2013-02-23 07:56:00,27.9,20.4,29.84,WSW,240,6.0,16.0,73,0.00,,---,0.00,VWS V14.00,2013-02-23 12:56:00,
2013-02-23 07:58:00,27.9,20.7,29.84,SW,230,2.0,16.0,74,0.00,,---,0.00,VWS V14.00,2013-02-23 12:58:00,
2013-02-23 08:01:00,28.1,20.9,29.85,WSW,243,7.0,9.0,74,0.00,,---,0.00,VWS V14.00,2013-02-23 13:01:00,
2013-02-23 08:03:00,28.1,20.9,29.85,SW,223,7.0,9.0,74,0.00,,---,0.00,VWS V14.00,2013-02-23 13:03:00,
2013-02-23 08:04:00,28.1,20.9,29.85,SW,216,6.0,9.0,74,0.00,,---,0.00,VWS V14.00,2013-02-23 13:04:00,
2013-02-23 08:06:00,28.1,20.9,29.85,SSW,202,6.0,14.0,74,0.00,,---,0.00,VWS V14.00,2013-02-23 13:06:00,
2013-02-23 08:08:00,28.1,20.9,29.85,SSW,196,8.0,14.0,74,0.00,,---,0.00,VWS V14.00,2013-02-23 13:08:00,
2013-02-23 08:09:00,28.1,20.9,29.85,SW,222,6.0,14.0,74,0.00,,---,0.00,VWS V14.00,2013-02-23 13:09:00,
2013-02-23 08:11:00,28.1,20.9,29.85,SW,222,7.0,14.0,74,0.00,,---,0.00,VWS V14.00,2013-02-23 13:11:00,
2013-02-23 08:13:00,28.1,20.9,29.85,SSW,205,4.0,14.0,74,0.00,,---,0.00,VWS V14.00,2013-02-23 13:13:00,
2013-02-23 08:14:00,28.1,20.9,29.85,WSW,253,4.0,14.0,74,0.00,,---,0.00,VWS V14.00,2013-02-23 13:14:00,
2013-02-23 08:16:00,28.1,20.9,29.85,SSW,206,8.0,14.0,74,0.00,,---,0.00,VWS V14.00,2013-02-23 13:16:00,
2013-02-23 08:18:00,28.1,20.9,29.85,SSW,209,7.0,14.0,74,0.00,,---,0.00,VWS V14.00,2013-02-23 13:18:00,
2013-02-23 08:19:00,28.1,20.9,29.85,SW,233,7.0,14.0,74,0.00,,---,0.00,VWS V14.00,2013-02-23 13:19:00,
2013-02-23 08:21:00,28.1,20.9,29.85,SW,233,8.0,14.0,74,0.00,,---,0.00,VWS V14.00,2013-02-23 13:21:00,
2013-02-23 08:23:00,28.1,20.9,29.85,SW,234,7.0,14.0,74,0.00,,---,0.00,VWS V14.00,2013-02-23 13:23:00,
2013-02-23 08:24:00,28.1,20.9,29.85,West,260,2.0,14.0,74,0.00,,---,0.00,VWS V14.00,2013-02-23 13:24:00,
2013-02-23 08:25:00,28.1,20.9,29.85,SW,236,4.0,14.0,74,0.00,,---,0.00,VWS V14.00,2013-02-23 13:25:00,
2013-02-23 08:26:00,28.1,20.9,29.85,WSW,241,6.0,14.0,74,0.00,,---,0.00,VWS V14.00,2013-02-23 13:26:00,
2013-02-23 08:28:00,28.2,21.0,29.85,SW,236,9.0,14.0,74,0.00,,---,0.00,VWS V14.00,2013-02-23 13:28:00,
2013-02-23 08:29:00,28.2,21.0,29.85,SSW,213,7.0,14.0,74,0.00,,---,0.00,VWS V14.00,2013-02-23 13:29:00,
2013-02-23 08:30:00,28.2,21.0,29.85,SW,227,9.0,14.0,74,0.00,,---,0.00,VWS V14.00,2013-02-23 13:30:00,
2013-02-23 08:31:00,28.2,21.0,29.85,WSW,248,7.0,14.0,74,0.00,,---,0.00,VWS V14.00,2013-02-23 13:31:00,
2013-02-23 08:33:00,28.2,21.0,29.85,SW,233,9.0,14.0,74,0.00,,---,0.00,VWS V14.00,2013-02-23 13:33:00,
2013-02-23 08:34:00,28.2,21.0,29.85,WSW,243,7.0,14.0,74,0.00,,---,0.00,VWS V14.00,2013-02-23 13:34:00,
2013-02-23 08:35:00,28.2,21.0,29.85,WSW,237,7.0,14.0,74,0.00,,---,0.00,VWS V14.00,2013-02-23 13:35:00,
2013-02-23 08:36:00,28.2,21.0,29.85,SSW,209,10.0,14.0,74,0.00,,---,0.00,VWS V14.00,2013-02-23 13:36:00,
2013-02-23 08:38:00,28.2,21.3,29.85,West,274,6.0,14.0,75,0.00,,---,0.00,VWS V14.00,2013-02-23 13:38:00,
2013-02-23 08:39:00,28.2,21.3,29.85,West,278,7.0,14.0,75,0.00,,---,0.00,VWS V14.00,2013-02-23 13:39:00,
2013-02-23 08:40:00,28.2,21.3,29.85,SW,222,8.0,14.0,75,0.00,,---,0.00,VWS V14.00,2013-02-23 13:40:00,
2013-02-23 08:41:00,28.2,21.3,29.85,South,186,4.0,14.0,75,0.00,,---,0.00,VWS V14.00,2013-02-23 13:41:00,
2013-02-23 08:44:00,28.2,21.3,29.85,SW,230,4.0,15.0,75,0.00,,---,0.00,VWS V14.00,2013-02-23 13:44:00,
2013-02-23 08:45:00,28.2,21.3,29.85,WSW,251,6.0,15.0,75,0.00,,---,0.00,VWS V14.00,2013-02-23 13:45:00,
2013-02-23 08:46:00,28.4,21.5,29.85,SW,216,1.0,15.0,75,0.00,,---,0.00,VWS V14.00,2013-02-23 13:46:00,
2013-02-23 08:49:00,28.4,21.5,29.85,SW,215,7.0,15.0,75,0.00,,---,0.00,VWS V14.00,2013-02-23 13:49:00,
2013-02-23 08:50:00,28.4,21.5,29.85,SW,223,6.0,15.0,75,0.00,,---,0.00,VWS V14.00,2013-02-23 13:50:00,
2013-02-23 08:51:00,28.4,21.5,29.85,SSW,213,7.0,15.0,75,0.00,,---,0.00,VWS V14.00,2013-02-23 13:51:00,
2013-02-23 08:54:00,28.4,21.5,29.85,SW,222,8.0,15.0,75,0.00,,---,0.00,VWS V14.00,2013-02-23 13:54:00,
2013-02-23 08:56:00,28.4,21.2,29.85,SW,236,8.0,15.0,74,0.00,,---,0.00,VWS V14.00,2013-02-23 13:56:00,
2013-02-23 08:57:00,28.4,21.5,29.85,SSW,208,10.0,15.0,75,0.00,,---,0.00,VWS V14.00,2013-02-23 13:57:00,
2013-02-23 08:59:00,28.4,21.2,29.85,West,264,6.0,15.0,74,0.00,,---,0.00,VWS V14.00,2013-02-23 13:59:00,
2013-02-23 09:01:00,28.4,21.2,29.85,SSW,209,9.0,17.0,74,0.00,,---,0.00,VWS V14.00,2013-02-23 14:01:00,
2013-02-23 09:02:00,28.4,21.2,29.85,SSW,209,7.0,17.0,74,0.00,,---,0.00,VWS V14.00,2013-02-23 14:02:00,
2013-02-23 09:04:00,28.5,21.3,29.85,SSW,203,6.0,17.0,74,0.00,,---,0.00,VWS V14.00,2013-02-23 14:04:00,
2013-02-23 09:06:00,28.5,21.3,29.85,SSW,202,9.0,17.0,74,0.00,,---,0.00,VWS V14.00,2013-02-23 14:06:00,
2013-02-23 09:07:00,28.5,21.3,29.85,SW,224,8.0,17.0,74,0.00,,---,0.00,VWS V14.00,2013-02-23 14:07:00,
2013-02-23 09:09:00,28.5,21.3,29.85,SW,223,8.0,17.0,74,0.00,,---,0.00,VWS V14.00,2013-02-23 14:09:00,
2013-02-23 09:11:00,28.5,21.3,29.85,WSW,241,6.0,17.0,74,0.00,,---,0.00,VWS V14.00,2013-02-23 14:11:00,
2013-02-23 09:12:00,28.5,21.3,29.85,WSW,246,10.0,17.0,74,0.00,,---,0.00,VWS V14.00,2013-02-23 14:12:00,
2013-02-23 09:14:00,28.5,21.3,29.85,SW,230,7.0,17.0,74,0.00,,---,0.00,VWS V14.00,2013-02-23 14:14:00,
2013-02-23 09:15:00,28.5,21.3,29.85,WSW,250,2.0,17.0,74,0.00,,---,0.00,VWS V14.00,2013-02-23 14:15:00,
2013-02-23 09:16:00,28.5,21.3,29.85,SW,224,9.0,17.0,74,0.00,,---,0.00,VWS V14.00,2013-02-23 14:16:00,
2013-02-23 09:17:00,28.5,21.3,29.85,SW,217,7.0,17.0,74,0.00,,---,0.00,VWS V14.00,2013-02-23 14:17:00,
2013-02-23 09:19:00,28.5,21.3,29.85,SSW,203,9.0,17.0,74,0.00,,---,0.00,VWS V14.00,2013-02-23 14:19:00,
2013-02-23 09:20:00,28.5,21.3,29.85,SW,223,2.0,17.0,74,0.00,,---,0.00,VWS V14.00,2013-02-23 14:20:00,
2013-02-23 09:21:00,28.5,21.3,29.85,WSW,251,7.0,17.0,74,0.00,,---,0.00,VWS V14.00,2013-02-23 14:21:00,
2013-02-23 09:23:00,28.5,21.3,29.85,WSW,251,8.0,17.0,74,0.00,,---,0.00,VWS V14.00,2013-02-23 14:23:00,
2013-02-23 09:24:00,28.5,21.3,29.85,SSW,213,8.0,17.0,74,0.00,,---,0.00,VWS V14.00,2013-02-23 14:24:00,
2013-02-23 09:25:00,28.5,21.3,29.85,SW,233,7.0,17.0,74,0.00,,---,0.00,VWS V14.00,2013-02-23 14:25:00,
2013-02-23 09:26:00,28.5,21.3,29.85,South,191,7.0,17.0,74,0.00,,---,0.00,VWS V14.00,2013-02-23 14:26:00,
2013-02-23 09:28:00,28.5,21.3,29.85,SSW,199,8.0,17.0,74,0.00,,---,0.00,VWS V14.00,2013-02-23 14:28:00,
2013-02-23 09:29:00,28.5,21.3,29.84,SSW,212,9.0,17.0,74,0.00,,---,0.00,VWS V14.00,2013-02-23 14:29:00,
2013-02-23 09:30:00,28.5,21.3,29.84,SSW,206,6.0,17.0,74,0.00,,---,0.00,VWS V14.00,2013-02-23 14:30:00,
2013-02-23 09:31:00,28.7,21.8,29.84,SSW,206,8.0,17.0,75,0.00,,---,0.00,VWS V14.00,2013-02-23 14:31:00,
2013-02-23 09:33:00,28.7,21.5,29.84,WSW,254,9.0,17.0,74,0.00,,---,0.00,VWS V14.00,2013-02-23 14:33:00,
2013-02-23 09:34:00,28.7,21.5,29.84,SW,219,7.0,20.0,74,0.00,,---,0.00,VWS V14.00,2013-02-23 14:34:00,
2013-02-23 09:35:00,28.7,21.5,29.84,SW,219,7.0,20.0,74,0.00,,---,0.00,VWS V14.00,2013-02-23 14:35:00,
2013-02-23 09:36:00,28.7,21.5,29.84,SW,220,6.0,20.0,74,0.00,,---,0.00,VWS V14.00,2013-02-23 14:36:00,
2013-02-23 09:38:00,28.8,21.6,29.84,SW,216,8.0,20.0,74,0.00,,---,0.00,VWS V14.00,2013-02-23 14:38:00,
2013-02-23 09:40:00,28.8,21.6,29.84,SSW,208,10.0,20.0,74,0.00,,---,0.00,VWS V14.00,2013-02-23 14:40:00,
2013-02-23 09:41:00,29.0,21.8,29.84,SW,223,10.0,20.0,74,0.00,,---,0.00,VWS V14.00,2013-02-23 14:41:00,
2013-02-23 09:43:00,29.0,21.8,29.84,SW,217,11.0,20.0,74,0.00,,---,0.00,VWS V14.00,2013-02-23 14:43:00,
2013-02-23 09:45:00,29.0,21.8,29.84,SSW,213,2.0,20.0,74,0.00,,---,0.00,VWS V14.00,2013-02-23 14:45:00,
2013-02-23 09:46:00,29.1,21.9,29.84,SW,223,8.0,20.0,74,0.00,,---,0.00,VWS V14.00,2013-02-23 14:46:00,
2013-02-23 09:48:00,29.3,22.1,29.84,WNW,287,7.0,20.0,74,0.00,,---,0.00,VWS V14.00,2013-02-23 14:48:00,
2013-02-23 09:50:00,29.4,22.1,29.84,SSW,212,17.0,20.0,74,0.00,,---,0.00,VWS V14.00,2013-02-23 14:50:00,
2013-02-23 09:52:00,29.4,21.8,29.84,SW,217,9.0,20.0,73,0.00,,---,0.00,VWS V14.00,2013-02-23 14:52:00,
2013-02-23 09:53:00,29.4,21.8,29.84,SW,226,8.0,20.0,73,0.00,,---,0.00,VWS V14.00,2013-02-23 14:53:00,
2013-02-23 09:55:00,29.5,21.9,29.84,SSW,212,9.0,20.0,73,0.00,,---,0.00,VWS V14.00,2013-02-23 14:55:00,
2013-02-23 09:57:00,29.5,21.6,29.84,SW,215,8.0,20.0,72,0.00,,---,0.00,VWS V14.00,2013-02-23 14:57:00,
2013-02-23 09:58:00,29.5,21.6,29.84,SW,230,9.0,20.0,72,0.00,,---,0.00,VWS V14.00,2013-02-23 14:58:00,
2013-02-23 10:00:00,29.5,21.6,29.84,SSW,210,14.0,20.0,72,0.00,,---,0.00,VWS V14.00,2013-02-23 15:00:00,
2013-02-23 10:02:00,29.4,21.5,29.84,SW,227,4.0,17.0,72,0.00,,---,0.00,VWS V14.00,2013-02-23 15:02:00,
2013-02-23 10:04:00,29.4,21.5,29.84,WSW,247,8.0,17.0,72,0.00,,---,0.00,VWS V14.00,2013-02-23 15:04:00,
2013-02-23 10:05:00,29.4,21.5,29.84,SW,217,10.0,17.0,72,0.00,,---,0.00,VWS V14.00,2013-02-23 15:05:00,
2013-02-23 10:07:00,29.4,21.5,29.84,WNW,289,8.0,17.0,72,0.00,,---,0.00,VWS V14.00,2013-02-23 15:07:00,
2013-02-23 10:09:00,29.4,21.5,29.84,SW,217,10.0,17.0,72,0.00,,---,0.00,VWS V14.00,2013-02-23 15:09:00,
2013-02-23 10:10:00,29.4,21.5,29.84,SW,226,7.0,17.0,72,0.00,,---,0.00,VWS V14.00,2013-02-23 15:10:00,
2013-02-23 10:12:00,29.4,21.5,29.84,WSW,241,10.0,17.0,72,0.00,,---,0.00,VWS V14.00,2013-02-23 15:12:00,
2013-02-23 10:14:00,29.4,21.5,29.84,SSW,213,11.0,17.0,72,0.00,,---,0.00,VWS V14.00,2013-02-23 15:14:00,
2013-02-23 10:15:00,29.5,21.6,29.84,SSW,209,11.0,17.0,72,0.00,,---,0.00,VWS V14.00,2013-02-23 15:15:00,
2013-02-23 10:17:00,29.7,22.1,29.84,SW,227,9.0,17.0,73,0.00,,---,0.00,VWS V14.00,2013-02-23 15:17:00,
2013-02-23 10:19:00,29.7,21.8,29.84,SW,219,9.0,17.0,72,0.00,,---,0.00,VWS V14.00,2013-02-23 15:19:00,
2013-02-23 10:20:00,29.8,21.9,29.84,SW,222,4.0,17.0,72,0.00,,---,0.00,VWS V14.00,2013-02-23 15:20:00,
2013-02-23 10:22:00,29.8,21.9,29.84,SW,223,7.0,17.0,72,0.00,,---,0.00,VWS V14.00,2013-02-23 15:22:00,
2013-02-23 10:24:00,30.0,22.1,29.84,WSW,243,15.0,17.0,72,0.00,,---,0.00,VWS V14.00,2013-02-23 15:24:00,
2013-02-23 10:25:00,29.8,21.6,29.84,SSW,205,16.0,17.0,71,0.00,,---,0.00,VWS V14.00,2013-02-23 15:25:00,
2013-02-23 10:27:00,29.8,21.6,29.84,SW,215,8.0,17.0,71,0.00,,---,0.00,VWS V14.00,2013-02-23 15:27:00,
2013-02-23 10:29:00,29.8,21.6,29.84,SW,222,9.0,17.0,71,0.00,,---,0.00,VWS V14.00,2013-02-23 15:29:00,
2013-02-23 10:30:00,29.8,21.6,29.84,SSW,210,16.0,17.0,71,0.00,,---,0.00,VWS V14.00,2013-02-23 15:30:00,
2013-02-23 10:31:00,29.8,21.6,29.84,SSW,210,18.0,18.0,71,0.00,,---,0.00,VWS V14.00,2013-02-23 15:31:00,
2013-02-23 10:32:00,29.8,21.6,29.84,SW,227,15.0,18.0,71,0.00,,---,0.00,VWS V14.00,2013-02-23 15:32:00,
2013-02-23 10:34:00,29.8,21.6,29.84,SW,219,13.0,18.0,71,0.00,,---,0.00,VWS V14.00,2013-02-23 15:34:00,
2013-02-23 10:35:00,29.8,21.6,29.84,SW,223,16.0,18.0,71,0.00,,---,0.00,VWS V14.00,2013-02-23 15:35:00,
2013-02-23 10:36:00,29.8,21.6,29.84,SSW,209,15.0,20.0,71,0.00,,---,0.00,VWS V14.00,2013-02-23 15:36:00,
2013-02-23 10:37:00,29.8,21.6,29.84,SW,222,15.0,20.0,71,0.00,,---,0.00,VWS V14.00,2013-02-23 15:37:00,
2013-02-23 10:39:00,29.8,21.6,29.84,SSW,206,8.0,20.0,71,0.00,,---,0.00,VWS V14.00,2013-02-23 15:39:00,
2013-02-23 10:40:00,29.8,21.6,29.84,SSW,192,18.0,20.0,71,0.00,,---,0.00,VWS V14.00,2013-02-23 15:40:00,
2013-02-23 10:41:00,29.8,21.6,29.84,SSW,206,15.0,20.0,71,0.00,,---,0.00,VWS V14.00,2013-02-23 15:41:00,
2013-02-23 10:42:00,29.8,21.6,29.84,SW,230,8.0,20.0,71,0.00,,---,0.00,VWS V14.00,2013-02-23 15:42:00,
2013-02-23 10:44:00,29.8,21.6,29.84,WSW,240,4.0,20.0,71,0.00,,---,0.00,VWS V14.00,2013-02-23 15:44:00,
2013-02-23 10:45:00,30.0,21.8,29.84,WSW,237,4.0,20.0,71,0.00,,---,0.00,VWS V14.00,2013-02-23 15:45:00,
2013-02-23 10:46:00,30.0,21.8,29.84,SSW,199,7.0,20.0,71,0.00,,---,0.00,VWS V14.00,2013-02-23 15:46:00,
2013-02-23 10:47:00,30.0,21.8,29.84,SSW,209,9.0,20.0,71,0.00,,---,0.00,VWS V14.00,2013-02-23 15:47:00,
2013-02-23 10:49:00,30.1,21.9,29.84,West,280,15.0,20.0,71,0.00,,---,0.00,VWS V14.00,2013-02-23 15:49:00,
2013-02-23 10:50:00,30.1,21.5,29.84,West,264,8.0,20.0,70,0.00,,---,0.00,VWS V14.00,2013-02-23 15:50:00,
2013-02-23 10:51:00,30.1,21.5,29.84,SW,229,17.0,20.0,70,0.00,,---,0.00,VWS V14.00,2013-02-23 15:51:00,
2013-02-23 10:53:00,30.0,21.1,29.84,SW,236,10.0,20.0,69,0.00,,---,0.00,VWS V14.00,2013-02-23 15:53:00,
2013-02-23 10:54:00,29.8,20.9,29.84,WNW,284,8.0,20.0,69,0.00,,---,0.00,VWS V14.00,2013-02-23 15:54:00,
2013-02-23 10:55:00,29.7,20.8,29.84,West,278,6.0,20.0,69,0.00,,---,0.00,VWS V14.00,2013-02-23 15:55:00,
2013-02-23 10:56:00,29.7,20.8,29.84,WSW,237,6.0,20.0,69,0.00,,---,0.00,VWS V14.00,2013-02-23 15:56:00,
2013-02-23 10:58:00,29.7,20.8,29.84,SW,224,6.0,20.0,69,0.00,,---,0.00,VWS V14.00,2013-02-23 15:58:00,
2013-02-23 10:59:00,29.7,20.5,29.84,SW,233,10.0,20.0,68,0.00,,---,0.00,VWS V14.00,2013-02-23 15:59:00,
2013-02-23 11:00:00,29.5,20.3,29.83,SW,222,14.0,14.0,68,0.00,,---,0.00,VWS V14.00,2013-02-23 16:00:00,
2013-02-23 11:01:00,29.5,20.3,29.83,SSW,213,13.0,14.0,68,0.00,,---,0.00,VWS V14.00,2013-02-23 16:01:00,
2013-02-23 11:03:00,29.4,20.2,29.83,WSW,237,9.0,15.0,68,0.00,,---,0.00,VWS V14.00,2013-02-23 16:03:00,
2013-02-23 11:04:00,29.4,20.2,29.83,SW,222,8.0,15.0,68,0.00,,---,0.00,VWS V14.00,2013-02-23 16:04:00,
2013-02-23 11:06:00,29.4,20.2,29.83,SW,220,8.0,15.0,68,0.00,,---,0.00,VWS V14.00,2013-02-23 16:06:00,
2013-02-23 11:08:00,29.4,20.2,29.83,SSW,208,8.0,15.0,68,0.00,,---,0.00,VWS V14.00,2013-02-23 16:08:00,
2013-02-23 11:09:00,29.4,20.2,29.83,SSW,210,7.0,15.0,68,0.00,,---,0.00,VWS V14.00,2013-02-23 16:09:00,
2013-02-23 11:11:00,29.4,20.2,29.83,SW,229,13.0,15.0,68,0.00,,---,0.00,VWS V14.00,2013-02-23 16:11:00,
2013-02-23 11:13:00,29.4,20.2,29.83,SSW,192,8.0,15.0,68,0.00,,---,0.00,VWS V14.00,2013-02-23 16:13:00,
2013-02-23 11:14:00,29.5,20.3,29.83,SW,223,6.0,15.0,68,0.00,,---,0.00,VWS V14.00,2013-02-23 16:14:00,
2013-02-23 11:16:00,29.5,19.9,29.83,SSW,206,8.0,15.0,67,0.00,,---,0.00,VWS V14.00,2013-02-23 16:16:00,
2013-02-23 11:17:00,29.5,19.9,29.83,SW,217,9.0,15.0,67,0.00,,---,0.00,VWS V14.00,2013-02-23 16:17:00,
2013-02-23 11:18:00,29.5,19.9,29.83,SW,229,7.0,15.0,67,0.00,,---,0.00,VWS V14.00,2013-02-23 16:18:00,
2013-02-23 11:19:00,29.5,19.9,29.83,West,274,10.0,15.0,67,0.00,,---,0.00,VWS V14.00,2013-02-23 16:19:00,
2013-02-23 11:21:00,29.5,19.9,29.83,West,275,8.0,17.0,67,0.00,,---,0.00,VWS V14.00,2013-02-23 16:21:00,
2013-02-23 11:22:00,29.5,19.9,29.83,SW,220,9.0,17.0,67,0.00,,---,0.00,VWS V14.00,2013-02-23 16:22:00,
2013-02-23 11:23:00,29.5,19.9,29.83,SW,230,8.0,17.0,67,0.00,,---,0.00,VWS V14.00,2013-02-23 16:23:00,
2013-02-23 11:24:00,29.7,20.1,29.83,WSW,247,2.0,17.0,67,0.00,,---,0.00,VWS V14.00,2013-02-23 16:24:00,
2013-02-23 11:26:00,29.7,20.1,29.83,SW,215,4.0,17.0,67,0.00,,---,0.00,VWS V14.00,2013-02-23 16:26:00,
2013-02-23 11:27:00,29.7,20.1,29.83,SW,215,4.0,17.0,67,0.00,,---,0.00,VWS V14.00,2013-02-23 16:27:00,
2013-02-23 11:28:00,29.8,20.2,29.83,WSW,243,4.0,17.0,67,0.00,,---,0.00,VWS V14.00,2013-02-23 16:28:00,
2013-02-23 11:29:00,29.8,20.2,29.84,SW,229,7.0,17.0,67,0.00,,---,0.00,VWS V14.00,2013-02-23 16:29:00,
2013-02-23 11:31:00,30.0,20.0,29.84,SW,215,9.0,17.0,66,0.00,,---,0.00,VWS V14.00,2013-02-23 16:31:00,
2013-02-23 11:32:00,30.0,20.0,29.84,SSW,208,8.0,17.0,66,0.00,,---,0.00,VWS V14.00,2013-02-23 16:32:00,
2013-02-23 11:33:00,30.1,20.1,29.84,West,270,10.0,17.0,66,0.00,,---,0.00,VWS V14.00,2013-02-23 16:33:00,
2013-02-23 11:35:00,30.1,20.1,29.84,SSW,208,7.0,17.0,66,0.00,,---,0.00,VWS V14.00,2013-02-23 16:35:00,
2013-02-23 11:36:00,30.3,20.3,29.84,SW,226,9.0,17.0,66,0.00,,---,0.00,VWS V14.00,2013-02-23 16:36:00,
2013-02-23 11:37:00,30.3,20.3,29.84,West,261,6.0,17.0,66,0.00,,---,0.00,VWS V14.00,2013-02-23 16:37:00,
2013-02-23 11:38:00,30.3,20.0,29.84,SW,233,8.0,17.0,65,0.00,,---,0.00,VWS V14.00,2013-02-23 16:38:00,
2013-02-23 11:40:00,30.4,20.1,29.84,SW,216,8.0,17.0,65,0.00,,---,0.00,VWS V14.00,2013-02-23 16:40:00,
2013-02-23 11:41:00,30.6,20.2,29.84,SW,236,11.0,17.0,65,0.00,,---,0.00,VWS V14.00,2013-02-23 16:41:00,
2013-02-23 11:42:00,30.6,20.2,29.84,SW,230,7.0,17.0,65,0.00,,---,0.00,VWS V14.00,2013-02-23 16:42:00,
2013-02-23 11:43:00,30.6,20.2,29.84,SSW,193,4.0,17.0,65,0.00,,---,0.00,VWS V14.00,2013-02-23 16:43:00,
2013-02-23 11:45:00,30.7,20.3,29.83,SW,223,11.0,17.0,65,0.00,,---,0.00,VWS V14.00,2013-02-23 16:45:00,
2013-02-23 11:46:00,30.7,20.3,29.83,SW,215,10.0,17.0,65,0.00,,---,0.00,VWS V14.00,2013-02-23 16:46:00,
2013-02-23 11:47:00,30.7,20.3,29.83,SW,224,6.0,17.0,65,0.00,,---,0.00,VWS V14.00,2013-02-23 16:47:00,
2013-02-23 11:48:00,30.9,20.5,29.83,SW,223,8.0,17.0,65,0.00,,---,0.00,VWS V14.00,2013-02-23 16:48:00,
2013-02-23 11:50:00,30.9,20.5,29.83,WNW,282,2.0,17.0,65,0.00,,---,0.00,VWS V14.00,2013-02-23 16:50:00,
2013-02-23 11:51:00,31.0,20.6,29.83,WNW,295,10.0,17.0,65,0.00,,---,0.00,VWS V14.00,2013-02-23 16:51:00,
2013-02-23 11:52:00,31.0,20.6,29.83,SW,224,14.0,17.0,65,0.00,,---,0.00,VWS V14.00,2013-02-23 16:52:00,
2013-02-23 11:53:00,31.0,20.6,29.83,West,265,10.0,17.0,65,0.00,,---,0.00,VWS V14.00,2013-02-23 16:53:00,
2013-02-23 11:55:00,31.0,20.3,29.83,West,274,10.0,17.0,64,0.00,,---,0.00,VWS V14.00,2013-02-23 16:55:00,
2013-02-23 11:56:00,31.0,20.3,29.83,West,261,8.0,17.0,64,0.00,,---,0.00,VWS V14.00,2013-02-23 16:56:00,
2013-02-23 11:58:00,31.0,20.3,29.83,West,280,9.0,17.0,64,0.00,,---,0.00,VWS V14.00,2013-02-23 16:58:00,
2013-02-23 12:00:00,31.0,20.3,29.83,WSW,247,10.0,17.0,64,0.00,,---,0.00,VWS V14.00,2013-02-23 17:00:00,
2013-02-23 12:01:00,31.0,19.9,29.83,West,270,6.0,11.0,63,0.00,,---,0.00,VWS V14.00,2013-02-23 17:01:00,
2013-02-23 12:03:00,31.0,20.3,29.83,SW,219,8.0,11.0,64,0.00,,---,0.00,VWS V14.00,2013-02-23 17:03:00,
2013-02-23 12:05:00,31.0,20.3,29.83,SW,234,8.0,11.0,64,0.00,,---,0.00,VWS V14.00,2013-02-23 17:05:00,
2013-02-23 12:06:00,31.2,20.5,29.83,WSW,258,6.0,13.0,64,0.00,,---,0.00,VWS V14.00,2013-02-23 17:06:00,
2013-02-23 12:08:00,31.2,20.5,29.83,SW,230,15.0,15.0,64,0.00,,---,0.00,VWS V14.00,2013-02-23 17:08:00,
2013-02-23 12:10:00,31.3,20.5,29.83,SW,223,6.0,15.0,64,0.00,,---,0.00,VWS V14.00,2013-02-23 17:10:00,
2013-02-23 12:12:00,31.3,20.2,29.83,SW,224,8.0,15.0,63,0.00,,---,0.00,VWS V14.00,2013-02-23 17:12:00,
2013-02-23 12:13:00,31.3,20.2,29.83,SW,229,7.0,15.0,63,0.00,,---,0.00,VWS V14.00,2013-02-23 17:13:00,
2013-02-23 12:14:00,31.3,20.2,29.83,SW,222,6.0,15.0,63,0.00,,---,0.00,VWS V14.00,2013-02-23 17:14:00,
2013-02-23 12:15:00,31.3,20.2,29.82,SSW,212,9.0,18.0,63,0.00,,---,0.00,VWS V14.00,2013-02-23 17:15:00,
2013-02-23 12:17:00,31.3,20.2,29.82,SSW,199,6.0,18.0,63,0.00,,---,0.00,VWS V14.00,2013-02-23 17:17:00,
2013-02-23 12:18:00,31.3,20.2,29.82,SSW,213,14.0,18.0,63,0.00,,---,0.00,VWS V14.00,2013-02-23 17:18:00,
2013-02-23 12:19:00,31.3,20.2,29.82,SSW,198,7.0,18.0,63,0.00,,---,0.00,VWS V14.00,2013-02-23 17:19:00,
2013-02-23 12:21:00,31.3,20.2,29.82,SW,234,9.0,18.0,63,0.00,,---,0.00,VWS V14.00,2013-02-23 17:21:00,
2013-02-23 12:22:00,31.3,19.8,29.82,SW,229,11.0,18.0,62,0.00,,---,0.00,VWS V14.00,2013-02-23 17:22:00,
2013-02-23 12:24:00,31.3,19.8,29.82,WSW,251,6.0,18.0,62,0.00,,---,0.00,VWS V14.00,2013-02-23 17:24:00,
2013-02-23 12:26:00,31.3,19.8,29.82,SW,216,15.0,18.0,62,0.00,,---,0.00,VWS V14.00,2013-02-23 17:26:00,
2013-02-23 12:27:00,31.3,19.8,29.82,SW,222,14.0,18.0,62,0.00,,---,0.00,VWS V14.00,2013-02-23 17:27:00,
2013-02-23 12:28:00,31.3,19.8,29.82,SW,223,7.0,18.0,62,0.00,,---,0.00,VWS V14.00,2013-02-23 17:28:00,
2013-02-23 12:29:00,31.3,19.8,29.82,SW,233,13.0,18.0,62,0.00,,---,0.00,VWS V14.00,2013-02-23 17:29:00,
2013-02-23 12:31:00,31.3,19.8,29.83,SW,222,8.0,18.0,62,0.00,,---,0.00,VWS V14.00,2013-02-23 17:31:00,
2013-02-23 12:32:00,31.3,19.8,29.83,SSW,209,13.0,18.0,62,0.00,,---,0.00,VWS V14.00,2013-02-23 17:32:00,
2013-02-23 12:34:00,31.3,19.8,29.83,SW,229,11.0,18.0,62,0.00,,---,0.00,VWS V14.00,2013-02-23 17:34:00,
2013-02-23 12:36:00,31.5,20.0,29.83,SW,236,10.0,18.0,62,0.00,,---,0.00,VWS V14.00,2013-02-23 17:36:00,
2013-02-23 12:38:00,31.5,20.0,29.83,WSW,241,9.0,18.0,62,0.00,,---,0.00,VWS V14.00,2013-02-23 17:38:00,
2013-02-23 12:39:00,31.5,20.0,29.83,WSW,257,9.0,18.0,62,0.00,,---,0.00,VWS V14.00,2013-02-23 17:39:00,
2013-02-23 12:41:00,31.5,20.0,29.83,SW,226,11.0,18.0,62,0.00,,---,0.00,VWS V14.00,2013-02-23 17:41:00,
2013-02-23 12:43:00,31.5,20.0,29.83,SW,230,9.0,18.0,62,0.00,,---,0.00,VWS V14.00,2013-02-23 17:43:00,
2013-02-23 12:44:00,31.5,20.0,29.83,WSW,250,6.0,18.0,62,0.00,,---,0.00,VWS V14.00,2013-02-23 17:44:00,
2013-02-23 12:46:00,31.5,20.0,29.83,West,264,9.0,18.0,62,0.00,,---,0.00,VWS V14.00,2013-02-23 17:46:00,
2013-02-23 12:48:00,31.5,20.0,29.83,SW,217,7.0,18.0,62,0.00,,---,0.00,VWS V14.00,2013-02-23 17:48:00,
2013-02-23 12:49:00,31.5,20.0,29.83,SW,230,10.0,18.0,62,0.00,,---,0.00,VWS V14.00,2013-02-23 17:49:00,
2013-02-23 12:51:00,31.5,20.0,29.83,SW,233,4.0,18.0,62,0.00,,---,0.00,VWS V14.00,2013-02-23 17:51:00,
2013-02-23 12:53:00,31.6,20.1,29.83,West,272,9.0,18.0,62,0.00,,---,0.00,VWS V14.00,2013-02-23 17:53:00,
2013-02-23 12:54:00,31.5,20.0,29.83,SW,226,9.0,18.0,62,0.00,,---,0.00,VWS V14.00,2013-02-23 17:54:00,
2013-02-23 12:56:00,31.3,19.8,29.83,SW,232,7.0,18.0,62,0.00,,---,0.00,VWS V14.00,2013-02-23 17:56:00,
2013-02-23 12:58:00,31.3,19.8,29.83,West,271,8.0,18.0,62,0.00,,---,0.00,VWS V14.00,2013-02-23 17:58:00,
2013-02-23 12:59:00,31.5,20.0,29.83,WNW,284,7.0,18.0,62,0.00,,---,0.00,VWS V14.00,2013-02-23 17:59:00,
2013-02-23 13:01:00,31.5,20.0,29.83,WNW,298,11.0,16.0,62,0.00,,---,0.00,VWS V14.00,2013-02-23 18:01:00,
2013-02-23 13:03:00,31.3,19.8,29.83,West,260,7.0,16.0,62,0.00,,---,0.00,VWS V14.00,2013-02-23 18:03:00,
2013-02-23 13:04:00,31.3,19.8,29.83,WNW,302,6.0,16.0,62,0.00,,---,0.00,VWS V14.00,2013-02-23 18:04:00,
2013-02-23 13:05:00,31.3,19.8,29.83,SW,216,10.0,16.0,62,0.00,,---,0.00,VWS V14.00,2013-02-23 18:05:00,
2013-02-23 13:06:00,31.3,19.8,29.83,SW,226,10.0,16.0,62,0.00,,---,0.00,VWS V14.00,2013-02-23 18:06:00,
2013-02-23 13:08:00,31.3,19.4,29.83,WNW,284,6.0,16.0,61,0.00,,---,0.00,VWS V14.00,2013-02-23 18:08:00,
2013-02-23 13:09:00,31.5,20.0,29.83,SW,227,8.0,16.0,62,0.00,,---,0.00,VWS V14.00,2013-02-23 18:09:00,
2013-02-23 13:10:00,31.5,20.0,29.83,SW,233,6.0,16.0,62,0.00,,---,0.00,VWS V14.00,2013-02-23 18:10:00,
2013-02-23 13:11:00,31.8,20.3,29.83,West,267,4.0,16.0,62,0.00,,---,0.00,VWS V14.00,2013-02-23 18:11:00,
2013-02-23 13:14:00,31.8,20.3,29.83,SW,222,13.0,16.0,62,0.00,,---,0.00,VWS V14.00,2013-02-23 18:14:00,
2013-02-23 13:15:00,31.9,20.0,29.82,SW,234,9.0,16.0,61,0.00,,---,0.00,VWS V14.00,2013-02-23 18:15:00,
2013-02-23 13:17:00,31.8,19.5,29.82,SSW,199,9.0,16.0,60,0.00,,---,0.00,VWS V14.00,2013-02-23 18:17:00,
2013-02-23 13:19:00,31.9,20.0,29.82,SW,220,4.0,16.0,61,0.00,,---,0.00,VWS V14.00,2013-02-23 18:19:00,
2013-02-23 13:20:00,31.9,20.0,29.82,SSW,203,7.0,16.0,61,0.00,,---,0.00,VWS V14.00,2013-02-23 18:20:00,
2013-02-23 13:22:00,31.9,20.0,29.82,WSW,253,6.0,16.0,61,0.00,,---,0.00,VWS V14.00,2013-02-23 18:22:00,
2013-02-23 13:24:00,31.9,20.4,29.82,SSW,210,20.0,20.0,62,0.00,,---,0.00,VWS V14.00,2013-02-23 18:24:00,
2013-02-23 13:25:00,31.8,19.9,29.82,SW,224,11.0,20.0,61,0.00,,---,0.00,VWS V14.00,2013-02-23 18:25:00,
2013-02-23 13:27:00,31.8,19.9,29.82,South,184,10.0,20.0,61,0.00,,---,0.00,VWS V14.00,2013-02-23 18:27:00,
2013-02-23 13:29:00,31.8,19.9,29.82,SW,230,4.0,20.0,61,0.00,,---,0.00,VWS V14.00,2013-02-23 18:29:00,
2013-02-23 13:30:00,31.6,19.7,29.82,SW,236,6.0,20.0,61,0.00,,---,0.00,VWS V14.00,2013-02-23 18:30:00,
2013-02-23 13:32:00,31.8,19.9,29.82,SW,230,7.0,20.0,61,0.00,,---,0.00,VWS V14.00,2013-02-23 18:32:00,
2013-02-23 13:34:00,31.8,19.9,29.82,SW,220,17.0,20.0,61,0.00,,---,0.00,VWS V14.00,2013-02-23 18:34:00,
2013-02-23 13:35:00,31.8,19.9,29.82,SW,224,11.0,20.0,61,0.00,,---,0.00,VWS V14.00,2013-02-23 18:35:00,
2013-02-23 13:37:00,31.8,19.9,29.82,WNW,282,9.0,20.0,61,0.00,,---,0.00,VWS V14.00,2013-02-23 18:37:00,
2013-02-23 13:39:00,31.8,19.9,29.82,SW,234,9.0,20.0,61,0.00,,---,0.00,VWS V14.00,2013-02-23 18:39:00,
2013-02-23 13:40:00,31.6,19.7,29.82,SW,232,8.0,20.0,61,0.00,,---,0.00,VWS V14.00,2013-02-23 18:40:00,
2013-02-23 13:42:00,31.6,19.3,29.82,SSW,212,13.0,20.0,60,0.00,,---,0.00,VWS V14.00,2013-02-23 18:42:00,
2013-02-23 13:44:00,31.6,19.3,29.80,SSW,208,6.0,20.0,60,0.00,,---,0.00,VWS V14.00,2013-02-23 18:44:00,
2013-02-23 13:45:00,31.6,19.3,29.80,SW,226,11.0,20.0,60,0.00,,---,0.00,VWS V14.00,2013-02-23 18:45:00,
2013-02-23 13:47:00,31.8,19.9,29.80,SW,216,8.0,20.0,61,0.00,,---,0.00,VWS V14.00,2013-02-23 18:47:00,
2013-02-23 13:50:00,31.8,19.9,29.80,West,278,14.0,20.0,61,0.00,,---,0.00,VWS V14.00,2013-02-23 18:50:00,
2013-02-23 13:52:00,31.8,19.9,29.80,WSW,240,4.0,20.0,61,0.00,,---,0.00,VWS V14.00,2013-02-23 18:52:00,
2013-02-23 13:55:00,31.8,19.5,29.80,SW,216,7.0,20.0,60,0.00,,---,0.00,VWS V14.00,2013-02-23 18:55:00,
2013-02-23 13:56:00,31.8,19.5,29.80,SW,233,10.0,20.0,60,0.00,,---,0.00,VWS V14.00,2013-02-23 18:56:00,
2013-02-23 13:57:00,31.8,19.9,29.80,SSW,203,9.0,20.0,61,0.00,,---,0.00,VWS V14.00,2013-02-23 18:57:00,
2013-02-23 14:00:00,31.8,19.5,29.80,SSW,212,10.0,20.0,60,0.00,,---,0.00,VWS V14.00,2013-02-23 19:00:00,
2013-02-23 14:01:00,31.8,19.5,29.80,SW,227,6.0,8.0,60,0.00,,---,0.00,VWS V14.00,2013-02-23 19:01:00,
2013-02-23 14:02:00,31.8,19.5,29.80,SW,222,9.0,10.0,60,0.00,,---,0.00,VWS V14.00,2013-02-23 19:02:00,
2013-02-23 14:05:00,31.8,19.1,29.80,WNW,291,13.0,15.0,59,0.00,,---,0.00,VWS V14.00,2013-02-23 19:05:00,
2013-02-23 14:06:00,31.8,19.1,29.80,SW,215,9.0,15.0,59,0.00,,---,0.00,VWS V14.00,2013-02-23 19:06:00,
2013-02-23 14:07:00,31.8,19.5,29.80,SSW,213,11.0,15.0,60,0.00,,---,0.00,VWS V14.00,2013-02-23 19:07:00,
2013-02-23 14:10:00,31.9,19.6,29.80,SSW,210,7.0,15.0,60,0.00,,---,0.00,VWS V14.00,2013-02-23 19:10:00,
2013-02-23 14:11:00,31.9,19.6,29.80,WSW,247,6.0,15.0,60,0.00,,---,0.00,VWS V14.00,2013-02-23 19:11:00,
2013-02-23 14:13:00,31.9,19.6,29.80,SW,216,8.0,15.0,60,0.00,,---,0.00,VWS V14.00,2013-02-23 19:13:00,
2013-02-23 14:15:00,31.9,19.6,29.81,WNW,285,6.0,15.0,60,0.00,,---,0.00,VWS V14.00,2013-02-23 19:15:00,
2013-02-23 14:16:00,31.9,19.6,29.81,West,278,7.0,15.0,60,0.00,,---,0.00,VWS V14.00,2013-02-23 19:16:00,
2013-02-23 14:18:00,31.9,19.6,29.81,WSW,246,4.0,15.0,60,0.00,,---,0.00,VWS V14.00,2013-02-23 19:18:00,
2013-02-23 14:20:00,31.9,19.2,29.81,SW,216,13.0,15.0,59,0.00,,---,0.00,VWS V14.00,2013-02-23 19:20:00,
2013-02-23 14:21:00,31.9,19.2,29.81,SW,219,11.0,15.0,59,0.00,,---,0.00,VWS V14.00,2013-02-23 19:21:00,
2013-02-23 14:23:00,31.9,19.2,29.81,SW,216,13.0,15.0,59,0.00,,---,0.00,VWS V14.00,2013-02-23 19:23:00,
2013-02-23 14:25:00,31.8,19.1,29.81,SSW,213,4.0,15.0,59,0.00,,---,0.00,VWS V14.00,2013-02-23 19:25:00,
2013-02-23 14:26:00,31.8,19.1,29.81,SSW,198,9.0,15.0,59,0.00,,---,0.00,VWS V14.00,2013-02-23 19:26:00,
2013-02-23 14:28:00,31.6,18.9,29.81,WSW,254,9.0,15.0,59,0.00,,---,0.00,VWS V14.00,2013-02-23 19:28:00,
2013-02-23 14:30:00,31.6,19.3,29.81,SSW,208,8.0,15.0,60,0.00,,---,0.00,VWS V14.00,2013-02-23 19:30:00,
2013-02-23 14:31:00,31.6,19.3,29.81,SSW,209,11.0,15.0,60,0.00,,---,0.00,VWS V14.00,2013-02-23 19:31:00,
2013-02-23 14:33:00,31.6,19.3,29.81,SW,223,8.0,15.0,60,0.00,,---,0.00,VWS V14.00,2013-02-23 19:33:00,
2013-02-23 14:35:00,31.5,19.2,29.81,WSW,253,9.0,15.0,60,0.00,,---,0.00,VWS V14.00,2013-02-23 19:35:00,
2013-02-23 14:36:00,31.5,19.2,29.81,SW,236,10.0,15.0,60,0.00,,---,0.00,VWS V14.00,2013-02-23 19:36:00,
2013-02-23 14:38:00,31.5,19.2,29.81,SW,232,7.0,15.0,60,0.00,,---,0.00,VWS V14.00,2013-02-23 19:38:00,
2013-02-23 14:41:00,31.5,19.2,29.81,SW,215,4.0,15.0,60,0.00,,---,0.00,VWS V14.00,2013-02-23 19:41:00,
2013-02-23 14:42:00,31.5,19.6,29.81,SW,232,9.0,15.0,61,0.00,,---,0.00,VWS V14.00,2013-02-23 19:42:00,
2013-02-23 14:43:00,31.3,19.4,29.81,West,275,14.0,15.0,61,0.00,,---,0.00,VWS V14.00,2013-02-23 19:43:00,
2013-02-23 14:46:00,31.3,19.0,29.82,WSW,239,15.0,16.0,60,0.00,,---,0.00,VWS V14.00,2013-02-23 19:46:00,
2013-02-23 14:47:00,31.2,19.0,29.82,SW,219,9.0,16.0,60,0.00,,---,0.00,VWS V14.00,2013-02-23 19:47:00,
2013-02-23 14:48:00,31.2,19.0,29.82,WSW,237,8.0,16.0,60,0.00,,---,0.00,VWS V14.00,2013-02-23 19:48:00,
2013-02-23 14:51:00,31.2,19.3,29.82,SW,215,10.0,16.0,61,0.00,,---,0.00,VWS V14.00,2013-02-23 19:51:00,
2013-02-23 14:52:00,31.2,19.3,29.82,SW,226,9.0,16.0,61,0.00,,---,0.00,VWS V14.00,2013-02-23 19:52:00,
2013-02-23 14:53:00,31.0,19.1,29.82,SW,224,10.0,16.0,61,0.00,,---,0.00,VWS V14.00,2013-02-23 19:53:00,
2013-02-23 14:56:00,31.0,19.1,29.82,SW,223,7.0,17.0,61,0.00,,---,0.00,VWS V14.00,2013-02-23 19:56:00,
2013-02-23 14:57:00,31.0,19.1,29.82,SW,222,9.0,17.0,61,0.00,,---,0.00,VWS V14.00,2013-02-23 19:57:00,
2013-02-23 14:58:00,31.0,19.1,29.82,SW,220,10.0,17.0,61,0.00,,---,0.00,VWS V14.00,2013-02-23 19:58:00,
2013-02-23 15:01:00,30.9,18.7,29.81,SW,219,13.0,14.0,60,0.00,,---,0.00,VWS V14.00,2013-02-23 20:01:00,
2013-02-23 15:02:00,30.9,18.7,29.81,West,261,14.0,14.0,60,0.00,,---,0.00,VWS V14.00,2013-02-23 20:02:00,
2013-02-23 15:03:00,30.9,18.7,29.81,West,277,8.0,14.0,60,0.00,,---,0.00,VWS V14.00,2013-02-23 20:03:00,
2013-02-23 15:06:00,30.7,18.9,29.81,SSW,208,7.0,14.0,61,0.00,,---,0.00,VWS V14.00,2013-02-23 20:06:00,
2013-02-23 15:07:00,30.7,18.9,29.81,West,265,4.0,14.0,61,0.00,,---,0.00,VWS V14.00,2013-02-23 20:07:00,
2013-02-23 15:08:00,30.7,18.9,29.81,WSW,244,8.0,14.0,61,0.00,,---,0.00,VWS V14.00,2013-02-23 20:08:00,
2013-02-23 15:11:00,30.7,18.9,29.81,SSW,203,6.0,18.0,61,0.00,,---,0.00,VWS V14.00,2013-02-23 20:11:00,
2013-02-23 15:12:00,30.7,19.2,29.81,SW,236,11.0,18.0,62,0.00,,---,0.00,VWS V14.00,2013-02-23 20:12:00,
2013-02-23 15:13:00,30.7,18.9,29.81,WSW,237,11.0,18.0,61,0.00,,---,0.00,VWS V14.00,2013-02-23 20:13:00,
2013-02-23 15:16:00,30.6,18.8,29.81,SW,232,4.0,18.0,61,0.00,,---,0.00,VWS V14.00,2013-02-23 20:16:00,
2013-02-23 15:17:00,30.4,18.6,29.81,SSW,213,8.0,18.0,61,0.00,,---,0.00,VWS V14.00,2013-02-23 20:17:00,
2013-02-23 15:19:00,30.4,19.0,29.81,SW,230,13.0,18.0,62,0.00,,---,0.00,VWS V14.00,2013-02-23 20:19:00,
2013-02-23 15:21:00,30.4,19.0,29.81,SW,219,6.0,18.0,62,0.00,,---,0.00,VWS V14.00,2013-02-23 20:21:00,
2013-02-23 15:22:00,30.4,19.0,29.81,SSW,208,9.0,18.0,62,0.00,,---,0.00,VWS V14.00,2013-02-23 20:22:00,
2013-02-23 15:24:00,30.4,19.0,29.81,SW,224,9.0,18.0,62,0.00,,---,0.00,VWS V14.00,2013-02-23 20:24:00,
2013-02-23 15:26:00,30.4,19.0,29.81,SW,229,9.0,18.0,62,0.00,,---,0.00,VWS V14.00,2013-02-23 20:26:00,
2013-02-23 15:27:00,30.4,19.0,29.81,SW,227,10.0,18.0,62,0.00,,---,0.00,VWS V14.00,2013-02-23 20:27:00,
2013-02-23 15:29:00,30.3,18.9,29.81,SSW,213,10.0,18.0,62,0.00,,---,0.00,VWS V14.00,2013-02-23 20:29:00,
2013-02-23 15:31:00,30.3,18.9,29.81,SW,217,14.0,18.0,62,0.00,,---,0.00,VWS V14.00,2013-02-23 20:31:00,
2013-02-23 15:32:00,30.3,18.9,29.81,SSW,209,13.0,18.0,62,0.00,,---,0.00,VWS V14.00,2013-02-23 20:32:00,
2013-02-23 15:33:00,30.3,18.9,29.81,SW,220,7.0,18.0,62,0.00,,---,0.00,VWS V14.00,2013-02-23 20:33:00,
2013-02-23 15:34:00,30.3,18.9,29.81,West,260,7.0,18.0,62,0.00,,---,0.00,VWS V14.00,2013-02-23 20:34:00,
2013-02-23 15:36:00,30.4,19.0,29.81,SSW,213,7.0,18.0,62,0.00,,---,0.00,VWS V14.00,2013-02-23 20:36:00,
2013-02-23 15:37:00,30.4,19.0,29.81,SW,216,9.0,18.0,62,0.00,,---,0.00,VWS V14.00,2013-02-23 20:37:00,
2013-02-23 15:38:00,30.4,19.0,29.81,SW,219,7.0,18.0,62,0.00,,---,0.00,VWS V14.00,2013-02-23 20:38:00,
2013-02-23 15:39:00,30.4,19.0,29.81,SW,220,6.0,18.0,62,0.00,,---,0.00,VWS V14.00,2013-02-23 20:39:00,
2013-02-23 15:41:00,30.4,19.0,29.81,WSW,243,9.0,18.0,62,0.00,,---,0.00,VWS V14.00,2013-02-23 20:41:00,
2013-02-23 15:42:00,30.4,19.0,29.81,WSW,240,7.0,18.0,62,0.00,,---,0.00,VWS V14.00,2013-02-23 20:42:00,
2013-02-23 15:43:00,30.4,19.0,29.81,WNW,295,6.0,18.0,62,0.00,,---,0.00,VWS V14.00,2013-02-23 20:43:00,
2013-02-23 15:44:00,30.4,19.0,29.81,WSW,244,6.0,18.0,62,0.00,,---,0.00,VWS V14.00,2013-02-23 20:44:00,
2013-02-23 15:46:00,30.6,19.1,29.81,WSW,246,2.0,18.0,62,0.00,,---,0.00,VWS V14.00,2013-02-23 20:46:00,
2013-02-23 15:47:00,30.6,19.1,29.81,SW,222,4.0,18.0,62,0.00,,---,0.00,VWS V14.00,2013-02-23 20:47:00,
2013-02-23 15:48:00,30.6,19.1,29.81,SW,227,6.0,18.0,62,0.00,,---,0.00,VWS V14.00,2013-02-23 20:48:00,
2013-02-23 15:49:00,30.6,19.1,29.81,SSW,205,9.0,18.0,62,0.00,,---,0.00,VWS V14.00,2013-02-23 20:49:00,
2013-02-23 15:52:00,30.4,18.6,29.81,SW,222,11.0,18.0,61,0.00,,---,0.00,VWS V14.00,2013-02-23 20:52:00,
2013-02-23 15:54:00,30.4,18.6,29.81,SSW,209,8.0,18.0,61,0.00,,---,0.00,VWS V14.00,2013-02-23 20:54:00,
2013-02-23 15:57:00,30.3,18.5,29.81,SW,217,13.0,18.0,61,0.00,,---,0.00,VWS V14.00,2013-02-23 20:57:00,
2013-02-23 15:59:00,30.3,18.5,29.81,NW,308,9.0,18.0,61,0.00,,---,0.00,VWS V14.00,2013-02-23 20:59:00,
2013-02-23 16:00:00,30.3,18.5,29.82,SW,222,9.0,18.0,61,0.00,,---,0.00,VWS V14.00,2013-02-23 21:00:00,
2013-02-23 16:02:00,30.1,18.3,29.82,SSW,196,10.0,10.0,61,0.00,,---,0.00,VWS V14.00,2013-02-23 21:02:00,
2013-02-23 16:04:00,30.1,18.7,29.82,SSW,209,9.0,13.0,62,0.00,,---,0.00,VWS V14.00,2013-02-23 21:04:00,
2013-02-23 16:05:00,30.1,18.7,29.82,SW,216,14.0,16.0,62,0.00,,---,0.00,VWS V14.00,2013-02-23 21:05:00,
2013-02-23 16:07:00,30.1,18.3,29.82,WNW,292,11.0,16.0,61,0.00,,---,0.00,VWS V14.00,2013-02-23 21:07:00,
2013-02-23 16:09:00,30.1,18.3,29.82,SSW,212,10.0,16.0,61,0.00,,---,0.00,VWS V14.00,2013-02-23 21:09:00,
2013-02-23 16:10:00,30.1,18.3,29.82,SW,219,10.0,16.0,61,0.00,,---,0.00,VWS V14.00,2013-02-23 21:10:00,
2013-02-23 16:12:00,30.1,18.3,29.82,SW,236,11.0,16.0,61,0.00,,---,0.00,VWS V14.00,2013-02-23 21:12:00,
2013-02-23 16:14:00,30.1,18.7,29.82,SW,224,6.0,16.0,62,0.00,,---,0.00,VWS V14.00,2013-02-23 21:14:00,
2013-02-23 16:15:00,30.1,18.7,29.82,SSW,202,4.0,16.0,62,0.00,,---,0.00,VWS V14.00,2013-02-23 21:15:00,
2013-02-23 16:17:00,30.1,18.7,29.82,WSW,237,9.0,16.0,62,0.00,,---,0.00,VWS V14.00,2013-02-23 21:17:00,
2013-02-23 16:19:00,30.1,18.7,29.82,SW,227,4.0,16.0,62,0.00,,---,0.00,VWS V14.00,2013-02-23 21:19:00,
2013-02-23 16:20:00,30.1,18.3,29.82,SW,222,4.0,16.0,61,0.00,,---,0.00,VWS V14.00,2013-02-23 21:20:00,
2013-02-23 16:22:00,30.1,18.7,29.82,West,277,14.0,16.0,62,0.00,,---,0.00,VWS V14.00,2013-02-23 21:22:00,
2013-02-23 16:24:00,30.0,18.6,29.82,WSW,241,8.0,16.0,62,0.00,,---,0.00,VWS V14.00,2013-02-23 21:24:00,
2013-02-23 16:25:00,30.0,18.6,29.82,SW,226,4.0,16.0,62,0.00,,---,0.00,VWS V14.00,2013-02-23 21:25:00,
2013-02-23 16:27:00,30.0,18.6,29.82,SW,230,8.0,16.0,62,0.00,,---,0.00,VWS V14.00,2013-02-23 21:27:00,
2013-02-23 16:29:00,30.0,18.6,29.82,SW,227,7.0,16.0,62,0.00,,---,0.00,VWS V14.00,2013-02-23 21:29:00,
2013-02-23 16:30:00,29.8,18.4,29.82,WSW,250,6.0,16.0,62,0.00,,---,0.00,VWS V14.00,2013-02-23 21:30:00,
2013-02-23 16:32:00,29.8,18.4,29.82,SW,224,8.0,16.0,62,0.00,,---,0.00,VWS V14.00,2013-02-23 21:32:00,
2013-02-23 16:33:00,29.8,18.4,29.82,WSW,251,10.0,16.0,62,0.00,,---,0.00,VWS V14.00,2013-02-23 21:33:00,
2013-02-23 16:34:00,29.7,17.9,29.82,SSW,210,10.0,16.0,61,0.00,,---,0.00,VWS V14.00,2013-02-23 21:34:00,
2013-02-23 16:36:00,29.7,17.9,29.82,WSW,243,8.0,16.0,61,0.00,,---,0.00,VWS V14.00,2013-02-23 21:36:00,
2013-02-23 16:37:00,29.7,18.3,29.82,West,264,7.0,16.0,62,0.00,,---,0.00,VWS V14.00,2013-02-23 21:37:00,
2013-02-23 16:38:00,29.7,18.3,29.82,SW,217,4.0,16.0,62,0.00,,---,0.00,VWS V14.00,2013-02-23 21:38:00,
2013-02-23 16:39:00,29.5,18.1,29.82,SW,220,6.0,16.0,62,0.00,,---,0.00,VWS V14.00,2013-02-23 21:39:00,
2013-02-23 16:41:00,29.5,18.1,29.82,SSW,210,4.0,16.0,62,0.00,,---,0.00,VWS V14.00,2013-02-23 21:41:00,
2013-02-23 16:42:00,29.5,18.1,29.82,SW,230,7.0,16.0,62,0.00,,---,0.00,VWS V14.00,2013-02-23 21:42:00,
2013-02-23 16:43:00,29.5,18.1,29.82,WNW,285,6.0,16.0,62,0.00,,---,0.00,VWS V14.00,2013-02-23 21:43:00,
2013-02-23 16:45:00,29.5,18.1,29.82,West,264,8.0,16.0,62,0.00,,---,0.00,VWS V14.00,2013-02-23 21:45:00,
2013-02-23 16:46:00,29.5,18.1,29.82,SW,223,6.0,16.0,62,0.00,,---,0.00,VWS V14.00,2013-02-23 21:46:00,
2013-02-23 16:47:00,29.4,18.4,29.82,WSW,244,10.0,16.0,63,0.00,,---,0.00,VWS V14.00,2013-02-23 21:47:00,
2013-02-23 16:48:00,29.4,18.4,29.82,WSW,237,10.0,16.0,63,0.00,,---,0.00,VWS V14.00,2013-02-23 21:48:00,
2013-02-23 16:50:00,29.4,18.4,29.82,WSW,239,8.0,16.0,63,0.00,,---,0.00,VWS V14.00,2013-02-23 21:50:00,
2013-02-23 16:51:00,29.4,18.4,29.82,WSW,239,8.0,16.0,63,0.00,,---,0.00,VWS V14.00,2013-02-23 21:51:00,
2013-02-23 16:52:00,29.4,18.4,29.82,WSW,239,8.0,16.0,63,0.00,,---,0.00,VWS V14.00,2013-02-23 21:52:00,
2013-02-23 16:53:00,29.4,18.0,29.82,SW,233,10.0,16.0,62,0.00,,---,0.00,VWS V14.00,2013-02-23 21:53:00,
2013-02-23 16:55:00,29.3,17.9,29.82,SSW,212,7.0,16.0,62,0.00,,---,0.00,VWS V14.00,2013-02-23 21:55:00,
2013-02-23 16:56:00,29.3,17.9,29.82,SW,220,4.0,16.0,62,0.00,,---,0.00,VWS V14.00,2013-02-23 21:56:00,
2013-02-23 16:58:00,29.3,18.3,29.82,West,281,7.0,16.0,63,0.00,,---,0.00,VWS V14.00,2013-02-23 21:58:00,
2013-02-23 16:59:00,29.3,18.3,29.82,WSW,254,2.0,16.0,63,0.00,,---,0.00,VWS V14.00,2013-02-23 21:59:00,
2013-02-23 17:00:00,29.3,18.3,29.83,SSW,200,2.0,16.0,63,0.00,,---,0.00,VWS V14.00,2013-02-23 22:00:00,
2013-02-23 17:01:00,29.3,18.3,29.83,SW,229,7.0,8.0,63,0.00,,---,0.00,VWS V14.00,2013-02-23 22:01:00,
2013-02-23 17:03:00,29.3,18.3,29.83,SSW,208,8.0,9.0,63,0.00,,---,0.00,VWS V14.00,2013-02-23 22:03:00,
2013-02-23 17:04:00,29.3,18.3,29.83,SW,234,6.0,9.0,63,0.00,,---,0.00,VWS V14.00,2013-02-23 22:04:00,
2013-02-23 17:05:00,29.3,18.3,29.83,SW,232,6.0,11.0,63,0.00,,---,0.00,VWS V14.00,2013-02-23 22:05:00,
2013-02-23 17:06:00,29.3,18.3,29.83,SSW,198,6.0,11.0,63,0.00,,---,0.00,VWS V14.00,2013-02-23 22:06:00,
2013-02-23 17:08:00,29.3,18.3,29.83,West,281,8.0,11.0,63,0.00,,---,0.00,VWS V14.00,2013-02-23 22:08:00,
2013-02-23 17:09:00,29.3,18.3,29.83,WSW,239,9.0,11.0,63,0.00,,---,0.00,VWS V14.00,2013-02-23 22:09:00,
2013-02-23 17:10:00,29.3,17.9,29.83,WNW,284,6.0,11.0,62,0.00,,---,0.00,VWS V14.00,2013-02-23 22:10:00,
2013-02-23 17:11:00,29.1,17.7,29.83,WSW,240,8.0,11.0,62,0.00,,---,0.00,VWS V14.00,2013-02-23 22:11:00,
2013-02-23 17:13:00,29.1,17.7,29.83,SW,234,2.0,11.0,62,0.00,,---,0.00,VWS V14.00,2013-02-23 22:13:00,
2013-02-23 17:14:00,29.1,18.1,29.83,SSW,213,4.0,11.0,63,0.00,,---,0.00,VWS V14.00,2013-02-23 22:14:00,
2013-02-23 17:15:00,29.1,18.1,29.83,SW,233,4.0,11.0,63,0.00,,---,0.00,VWS V14.00,2013-02-23 22:15:00,
2013-02-23 17:16:00,29.1,18.1,29.83,WSW,243,1.0,11.0,63,0.00,,---,0.00,VWS V14.00,2013-02-23 22:16:00,
2013-02-23 17:18:00,29.1,18.1,29.83,WSW,241,10.0,11.0,63,0.00,,---,0.00,VWS V14.00,2013-02-23 22:18:00,
2013-02-23 17:19:00,29.1,18.1,29.83,SW,229,8.0,11.0,63,0.00,,---,0.00,VWS V14.00,2013-02-23 22:19:00,
2013-02-23 17:20:00,29.1,18.1,29.83,SW,222,7.0,11.0,63,0.00,,---,0.00,VWS V14.00,2013-02-23 22:20:00,
2013-02-23 17:21:00,29.1,18.1,29.83,SW,216,8.0,11.0,63,0.00,,---,0.00,VWS V14.00,2013-02-23 22:21:00,
2013-02-23 17:23:00,29.1,18.1,29.83,WSW,246,6.0,11.0,63,0.00,,---,0.00,VWS V14.00,2013-02-23 22:23:00,
2013-02-23 17:24:00,29.1,18.1,29.83,SW,232,4.0,11.0,63,0.00,,---,0.00,VWS V14.00,2013-02-23 22:24:00,
2013-02-23 17:26:00,29.1,18.1,29.83,SW,232,4.0,11.0,63,0.00,,---,0.00,VWS V14.00,2013-02-23 22:26:00,
2013-02-23 17:28:00,29.1,18.5,29.83,SSW,210,10.0,11.0,64,0.00,,---,0.00,VWS V14.00,2013-02-23 22:28:00,
2013-02-23 17:29:00,29.1,18.1,29.83,SW,217,10.0,13.0,63,0.00,,---,0.00,VWS V14.00,2013-02-23 22:29:00,
2013-02-23 17:31:00,29.1,18.1,29.83,SW,216,8.0,13.0,63,0.00,,---,0.00,VWS V14.00,2013-02-23 22:31:00,
2013-02-23 17:33:00,29.0,18.0,29.83,SW,215,10.0,13.0,63,0.00,,---,0.00,VWS V14.00,2013-02-23 22:33:00,
2013-02-23 17:34:00,29.0,18.0,29.83,SSW,213,4.0,13.0,63,0.00,,---,0.00,VWS V14.00,2013-02-23 22:34:00,
2013-02-23 17:36:00,29.0,18.0,29.83,WSW,237,6.0,13.0,63,0.00,,---,0.00,VWS V14.00,2013-02-23 22:36:00,
2013-02-23 17:38:00,29.0,18.0,29.83,SW,236,11.0,13.0,63,0.00,,---,0.00,VWS V14.00,2013-02-23 22:38:00,
2013-02-23 17:39:00,28.8,17.8,29.83,SW,217,7.0,15.0,63,0.00,,---,0.00,VWS V14.00,2013-02-23 22:39:00,
2013-02-23 17:41:00,28.8,17.8,29.83,West,275,7.0,15.0,63,0.00,,---,0.00,VWS V14.00,2013-02-23 22:41:00,
2013-02-23 17:42:00,28.8,17.8,29.83,WNW,291,6.0,15.0,63,0.00,,---,0.00,VWS V14.00,2013-02-23 22:42:00,
2013-02-23 17:43:00,28.8,17.8,29.83,SSW,202,4.0,15.0,63,0.00,,---,0.00,VWS V14.00,2013-02-23 22:43:00,
2013-02-23 17:44:00,28.7,17.7,29.83,SW,234,8.0,16.0,63,0.00,,---,0.00,VWS V14.00,2013-02-23 22:44:00,
2013-02-23 17:47:00,28.7,17.7,29.83,WSW,251,4.0,16.0,63,0.00,,---,0.00,VWS V14.00,2013-02-23 22:47:00,
2013-02-23 17:48:00,28.7,17.7,29.83,WSW,258,6.0,16.0,63,0.00,,---,0.00,VWS V14.00,2013-02-23 22:48:00,
2013-02-23 17:50:00,28.7,17.7,29.83,WSW,254,4.0,16.0,63,0.00,,---,0.00,VWS V14.00,2013-02-23 22:50:00,
2013-02-23 17:52:00,28.5,17.5,29.83,SSW,193,7.0,16.0,63,0.00,,---,0.00,VWS V14.00,2013-02-23 22:52:00,
2013-02-23 17:53:00,28.5,17.5,29.83,SSW,202,7.0,16.0,63,0.00,,---,0.00,VWS V14.00,2013-02-23 22:53:00,
2013-02-23 17:55:00,28.5,17.9,29.83,SSW,209,8.0,16.0,64,0.00,,---,0.00,VWS V14.00,2013-02-23 22:55:00,
2013-02-23 17:57:00,28.5,17.9,29.83,SSW,212,7.0,16.0,64,0.00,,---,0.00,VWS V14.00,2013-02-23 22:57:00,
2013-02-23 17:58:00,28.5,17.5,29.83,SW,227,7.0,16.0,63,0.00,,---,0.00,VWS V14.00,2013-02-23 22:58:00,
2013-02-23 18:00:00,28.5,17.5,29.84,SW,222,7.0,16.0,63,0.00,,---,0.00,VWS V14.00,2013-02-23 23:00:00,
2013-02-23 18:02:00,28.5,17.9,29.84,WNW,291,2.0,9.0,64,0.00,,---,0.00,VWS V14.00,2013-02-23 23:02:00,
2013-02-23 18:03:00,28.5,17.9,29.84,SW,236,4.0,9.0,64,0.00,,---,0.00,VWS V14.00,2013-02-23 23:03:00,
2013-02-23 18:05:00,28.5,17.9,29.84,SW,234,6.0,9.0,64,0.00,,---,0.00,VWS V14.00,2013-02-23 23:05:00,
2013-02-23 18:07:00,28.5,17.9,29.84,SW,233,2.0,10.0,64,0.00,,---,0.00,VWS V14.00,2013-02-23 23:07:00,
2013-02-23 18:08:00,28.5,17.9,29.84,SW,220,7.0,10.0,64,0.00,,---,0.00,VWS V14.00,2013-02-23 23:08:00,
2013-02-23 18:10:00,28.4,17.8,29.84,SW,229,8.0,10.0,64,0.00,,---,0.00,VWS V14.00,2013-02-23 23:10:00,
2013-02-23 18:12:00,28.4,17.8,29.84,SSW,192,2.0,10.0,64,0.00,,---,0.00,VWS V14.00,2013-02-23 23:12:00,
2013-02-23 18:13:00,28.4,17.8,29.84,South,191,6.0,10.0,64,0.00,,---,0.00,VWS V14.00,2013-02-23 23:13:00,
2013-02-23 18:14:00,28.4,17.8,29.84,SW,224,10.0,10.0,64,0.00,,---,0.00,VWS V14.00,2013-02-23 23:14:00,
2013-02-23 18:15:00,28.4,17.8,29.84,SW,232,4.0,10.0,64,0.00,,---,0.00,VWS V14.00,2013-02-23 23:15:00,
2013-02-23 18:17:00,28.4,17.8,29.84,WSW,237,7.0,10.0,64,0.00,,---,0.00,VWS V14.00,2013-02-23 23:17:00,
2013-02-23 18:18:00,28.4,17.8,29.84,WSW,237,2.0,10.0,64,0.00,,---,0.00,VWS V14.00,2013-02-23 23:18:00,
2013-02-23 18:19:00,28.4,17.8,29.84,SSW,209,1.0,10.0,64,0.00,,---,0.00,VWS V14.00,2013-02-23 23:19:00,
2013-02-23 18:20:00,28.4,17.8,29.84,SSW,209,7.0,10.0,64,0.00,,---,0.00,VWS V14.00,2013-02-23 23:20:00,
2013-02-23 18:22:00,28.4,17.8,29.84,SW,232,9.0,10.0,64,0.00,,---,0.00,VWS V14.00,2013-02-23 23:22:00,
2013-02-23 18:23:00,28.4,17.8,29.84,WSW,246,4.0,10.0,64,0.00,,---,0.00,VWS V14.00,2013-02-23 23:23:00,
2013-02-23 18:24:00,28.4,17.8,29.84,SSW,210,7.0,10.0,64,0.00,,---,0.00,VWS V14.00,2013-02-23 23:24:00,
2013-02-23 18:25:00,28.4,17.8,29.84,WNW,295,4.0,10.0,64,0.00,,---,0.00,VWS V14.00,2013-02-23 23:25:00,
2013-02-23 18:28:00,28.2,17.6,29.84,SW,236,7.0,10.0,64,0.00,,---,0.00,VWS V14.00,2013-02-23 23:28:00,
2013-02-23 18:29:00,28.2,17.6,29.84,SW,220,6.0,10.0,64,0.00,,---,0.00,VWS V14.00,2013-02-23 23:29:00,
2013-02-23 18:30:00,28.2,17.6,29.85,SW,219,4.0,10.0,64,0.00,,---,0.00,VWS V14.00,2013-02-23 23:30:00,
2013-02-23 18:33:00,28.2,17.6,29.85,WNW,284,4.0,10.0,64,0.00,,---,0.00,VWS V14.00,2013-02-23 23:33:00,
2013-02-23 18:34:00,28.2,17.6,29.85,West,275,4.0,10.0,64,0.00,,---,0.00,VWS V14.00,2013-02-23 23:34:00,
2013-02-23 18:36:00,28.2,18.0,29.85,SW,226,2.0,10.0,65,0.00,,---,0.00,VWS V14.00,2013-02-23 23:36:00,
2013-02-23 18:38:00,28.2,18.0,29.85,SW,226,7.0,10.0,65,0.00,,---,0.00,VWS V14.00,2013-02-23 23:38:00,
2013-02-23 18:39:00,28.2,18.0,29.85,SW,226,4.0,10.0,65,0.00,,---,0.00,VWS V14.00,2013-02-23 23:39:00,
2013-02-23 18:41:00,28.2,18.0,29.85,SSW,206,4.0,10.0,65,0.00,,---,0.00,VWS V14.00,2013-02-23 23:41:00,
2013-02-23 18:43:00,28.2,18.0,29.85,SW,220,2.0,10.0,65,0.00,,---,0.00,VWS V14.00,2013-02-23 23:43:00,
2013-02-23 18:44:00,28.2,18.0,29.85,WSW,256,6.0,10.0,65,0.00,,---,0.00,VWS V14.00,2013-02-23 23:44:00,
2013-02-23 18:46:00,28.2,18.0,29.85,SW,215,4.0,10.0,65,0.00,,---,0.00,VWS V14.00,2013-02-23 23:46:00,
2013-02-23 18:48:00,28.1,17.9,29.85,SW,219,6.0,10.0,65,0.00,,---,0.00,VWS V14.00,2013-02-23 23:48:00,
2013-02-23 18:49:00,28.1,17.9,29.85,SSW,213,6.0,10.0,65,0.00,,---,0.00,VWS V14.00,2013-02-23 23:49:00,
2013-02-23 18:51:00,28.1,17.9,29.85,SW,226,4.0,10.0,65,0.00,,---,0.00,VWS V14.00,2013-02-23 23:51:00,
2013-02-23 18:53:00,28.1,17.9,29.85,WSW,253,2.0,10.0,65,0.00,,---,0.00,VWS V14.00,2013-02-23 23:53:00,
2013-02-23 18:54:00,28.1,17.9,29.85,WSW,253,4.0,10.0,65,0.00,,---,0.00,VWS V14.00,2013-02-23 23:54:00,
2013-02-23 18:56:00,28.1,17.9,29.85,SW,232,6.0,10.0,65,0.00,,---,0.00,VWS V14.00,2013-02-23 23:56:00,
2013-02-23 18:59:00,28.1,17.9,29.85,WSW,257,4.0,10.0,65,0.00,,---,0.00,VWS V14.00,2013-02-23 23:59:00,
2013-02-23 19:01:00,27.9,17.7,29.86,SW,227,7.0,7.0,65,0.00,,---,0.00,VWS V14.00,2013-02-24 00:01:00,
2013-02-23 19:04:00,27.9,17.7,29.86,West,275,2.0,8.0,65,0.00,,---,0.00,VWS V14.00,2013-02-24 00:04:00,
2013-02-23 19:06:00,27.9,17.7,29.86,SSW,208,9.0,13.0,65,0.00,,---,0.00,VWS V14.00,2013-02-24 00:06:00,
2013-02-23 19:09:00,27.9,17.7,29.86,SSW,209,6.0,13.0,65,0.00,,---,0.00,VWS V14.00,2013-02-24 00:09:00,
2013-02-23 19:10:00,27.8,17.6,29.86,SW,215,6.0,13.0,65,0.00,,---,0.00,VWS V14.00,2013-02-24 00:10:00,
2013-02-23 19:11:00,27.8,17.6,29.86,WSW,240,6.0,13.0,65,0.00,,---,0.00,VWS V14.00,2013-02-24 00:11:00,
2013-02-23 19:14:00,27.8,17.6,29.86,SW,219,4.0,13.0,65,0.00,,---,0.00,VWS V14.00,2013-02-24 00:14:00,
2013-02-23 19:15:00,27.8,17.6,29.85,West,270,4.0,13.0,65,0.00,,---,0.00,VWS V14.00,2013-02-24 00:15:00,
2013-02-23 19:16:00,27.6,17.4,29.85,SW,215,7.0,13.0,65,0.00,,---,0.00,VWS V14.00,2013-02-24 00:16:00,
2013-02-23 19:19:00,27.6,17.4,29.85,WSW,243,6.0,13.0,65,0.00,,---,0.00,VWS V14.00,2013-02-24 00:19:00,
2013-02-23 19:20:00,27.6,17.4,29.85,SW,236,4.0,13.0,65,0.00,,---,0.00,VWS V14.00,2013-02-24 00:20:00,
2013-02-23 19:21:00,27.6,17.4,29.85,SW,230,9.0,13.0,65,0.00,,---,0.00,VWS V14.00,2013-02-24 00:21:00,
2013-02-23 19:24:00,27.5,17.3,29.85,SW,223,6.0,13.0,65,0.00,,---,0.00,VWS V14.00,2013-02-24 00:24:00,
2013-02-23 19:25:00,27.5,17.3,29.85,West,280,7.0,13.0,65,0.00,,---,0.00,VWS V14.00,2013-02-24 00:25:00,
2013-02-23 19:27:00,27.3,17.1,29.85,WNW,291,4.0,13.0,65,0.00,,---,0.00,VWS V14.00,2013-02-24 00:27:00,
2013-02-23 19:29:00,27.3,17.1,29.86,WSW,246,2.0,13.0,65,0.00,,---,0.00,VWS V14.00,2013-02-24 00:29:00,
2013-02-23 19:30:00,27.3,17.1,29.86,WNW,284,4.0,13.0,65,0.00,,---,0.00,VWS V14.00,2013-02-24 00:30:00,
2013-02-23 19:32:00,27.2,17.0,29.86,WSW,241,2.0,13.0,65,0.00,,---,0.00,VWS V14.00,2013-02-24 00:32:00,
2013-02-23 19:34:00,27.0,16.8,29.86,WSW,239,2.0,13.0,65,0.00,,---,0.00,VWS V14.00,2013-02-24 00:34:00,
2013-02-23 19:35:00,27.0,16.8,29.86,WSW,250,6.0,13.0,65,0.00,,---,0.00,VWS V14.00,2013-02-24 00:35:00,
2013-02-23 19:37:00,27.0,16.8,29.86,West,270,2.0,13.0,65,0.00,,---,0.00,VWS V14.00,2013-02-24 00:37:00,
2013-02-23 19:39:00,26.9,17.1,29.86,West,263,2.0,13.0,66,0.00,,---,0.00,VWS V14.00,2013-02-24 00:39:00,
2013-02-23 19:40:00,26.9,17.1,29.86,West,263,4.0,13.0,66,0.00,,---,0.00,VWS V14.00,2013-02-24 00:40:00,
2013-02-23 19:42:00,26.9,17.1,29.86,West,263,1.0,13.0,66,0.00,,---,0.00,VWS V14.00,2013-02-24 00:42:00,
2013-02-23 19:44:00,26.7,16.9,29.86,WSW,258,2.0,13.0,66,0.00,,---,0.00,VWS V14.00,2013-02-24 00:44:00,
2013-02-23 19:45:00,26.7,16.9,29.86,WSW,257,2.0,13.0,66,0.00,,---,0.00,VWS V14.00,2013-02-24 00:45:00,
2013-02-23 19:47:00,26.7,16.9,29.86,WSW,258,0.0,13.0,66,0.00,,---,0.00,VWS V14.00,2013-02-24 00:47:00,
2013-02-23 19:50:00,26.6,16.8,29.86,WSW,256,1.0,13.0,66,0.00,,---,0.00,VWS V14.00,2013-02-24 00:50:00,
2013-02-23 19:51:00,26.6,16.8,29.86,West,265,2.0,13.0,66,0.00,,---,0.00,VWS V14.00,2013-02-24 00:51:00,
2013-02-23 19:52:00,26.6,16.8,29.86,West,261,6.0,13.0,66,0.00,,---,0.00,VWS V14.00,2013-02-24 00:52:00,
2013-02-23 19:55:00,26.4,16.9,29.86,West,263,2.0,13.0,67,0.00,,---,0.00,VWS V14.00,2013-02-24 00:55:00,
2013-02-23 19:56:00,26.4,16.9,29.86,West,261,2.0,13.0,67,0.00,,---,0.00,VWS V14.00,2013-02-24 00:56:00,
2013-02-23 19:57:00,26.3,16.9,29.86,West,260,2.0,13.0,67,0.00,,---,0.00,VWS V14.00,2013-02-24 00:57:00,
2013-02-23 20:00:00,26.3,16.9,29.86,WSW,257,4.0,13.0,67,0.00,,---,0.00,VWS V14.00,2013-02-24 01:00:00,
2013-02-23 20:01:00,26.1,16.7,29.86,WSW,248,2.0,4.0,67,0.00,,---,0.00,VWS V14.00,2013-02-24 01:01:00,
2013-02-23 20:02:00,26.1,16.7,29.86,WSW,248,2.0,4.0,67,0.00,,---,0.00,VWS V14.00,2013-02-24 01:02:00,
2013-02-23 20:05:00,26.1,16.7,29.86,WSW,248,4.0,6.0,67,0.00,,---,0.00,VWS V14.00,2013-02-24 01:05:00,
2013-02-23 20:06:00,26.0,16.6,29.86,WSW,247,1.0,6.0,67,0.00,,---,0.00,VWS V14.00,2013-02-24 01:06:00,
2013-02-23 20:07:00,26.0,16.6,29.86,WSW,253,0.0,6.0,67,0.00,,---,0.00,VWS V14.00,2013-02-24 01:07:00,
2013-02-23 20:10:00,26.0,16.6,29.86,WSW,253,0.0,6.0,67,0.00,,---,0.00,VWS V14.00,2013-02-24 01:10:00,
2013-02-23 20:11:00,25.8,16.7,29.86,WSW,253,0.0,6.0,68,0.00,,---,0.00,VWS V14.00,2013-02-24 01:11:00,
2013-02-23 20:13:00,25.8,16.7,29.86,WSW,253,0.0,6.0,68,0.00,,---,0.00,VWS V14.00,2013-02-24 01:13:00,
2013-02-23 20:15:00,25.8,16.7,29.86,WSW,253,0.0,6.0,68,0.00,,---,0.00,VWS V14.00,2013-02-24 01:15:00,
2013-02-23 20:16:00,25.7,16.6,29.86,WSW,253,2.0,6.0,68,0.00,,---,0.00,VWS V14.00,2013-02-24 01:16:00,
2013-02-23 20:18:00,25.7,16.6,29.86,WSW,253,2.0,6.0,68,0.00,,---,0.00,VWS V14.00,2013-02-24 01:18:00,
2013-02-23 20:20:00,25.6,16.5,29.86,WSW,253,2.0,6.0,68,0.00,,---,0.00,VWS V14.00,2013-02-24 01:20:00,
2013-02-23 20:21:00,25.6,16.5,29.86,WSW,253,0.0,6.0,68,0.00,,---,0.00,VWS V14.00,2013-02-24 01:21:00,
2013-02-23 20:23:00,25.6,16.5,29.86,WSW,253,0.0,6.0,68,0.00,,---,0.00,VWS V14.00,2013-02-24 01:23:00,
2013-02-23 20:25:00,25.4,16.7,29.86,WSW,253,0.0,6.0,69,0.00,,---,0.00,VWS V14.00,2013-02-24 01:25:00,
2013-02-23 20:26:00,25.4,16.7,29.86,WSW,253,0.0,6.0,69,0.00,,---,0.00,VWS V14.00,2013-02-24 01:26:00,
2013-02-23 20:28:00,25.4,16.7,29.86,WSW,253,0.0,6.0,69,0.00,,---,0.00,VWS V14.00,2013-02-24 01:28:00,
2013-02-23 20:30:00,25.3,16.6,29.87,WSW,253,4.0,6.0,69,0.00,,---,0.00,VWS V14.00,2013-02-24 01:30:00,
2013-02-23 20:31:00,25.3,16.6,29.87,WSW,253,2.0,6.0,69,0.00,,---,0.00,VWS V14.00,2013-02-24 01:31:00,
2013-02-23 20:33:00,25.3,16.6,29.87,WSW,246,4.0,6.0,69,0.00,,---,0.00,VWS V14.00,2013-02-24 01:33:00,
2013-02-23 20:35:00,25.1,16.4,29.87,WSW,241,4.0,6.0,69,0.00,,---,0.00,VWS V14.00,2013-02-24 01:35:00,
2013-02-23 20:36:00,25.1,16.4,29.87,WSW,241,6.0,6.0,69,0.00,,---,0.00,VWS V14.00,2013-02-24 01:36:00,
2013-02-23 20:38:00,25.0,16.3,29.87,West,264,4.0,6.0,69,0.00,,---,0.00,VWS V14.00,2013-02-24 01:38:00,
2013-02-23 20:40:00,25.0,16.3,29.87,WSW,240,2.0,6.0,69,0.00,,---,0.00,VWS V14.00,2013-02-24 01:40:00,
2013-02-23 20:41:00,25.0,16.3,29.87,West,265,4.0,6.0,69,0.00,,---,0.00,VWS V14.00,2013-02-24 01:41:00,
2013-02-23 20:43:00,24.8,16.1,29.87,WSW,253,2.0,7.0,69,0.00,,---,0.00,VWS V14.00,2013-02-24 01:43:00,
2013-02-23 20:45:00,24.8,16.4,29.87,West,263,4.0,7.0,70,0.00,,---,0.00,VWS V14.00,2013-02-24 01:45:00,
2013-02-23 20:46:00,24.8,16.4,29.87,West,263,4.0,7.0,70,0.00,,---,0.00,VWS V14.00,2013-02-24 01:46:00,
2013-02-23 20:48:00,24.7,16.3,29.87,West,274,4.0,7.0,70,0.00,,---,0.00,VWS V14.00,2013-02-24 01:48:00,
2013-02-23 20:50:00,24.7,16.3,29.87,West,275,4.0,7.0,70,0.00,,---,0.00,VWS V14.00,2013-02-24 01:50:00,
2013-02-23 20:51:00,24.7,16.3,29.87,West,275,2.0,7.0,70,0.00,,---,0.00,VWS V14.00,2013-02-24 01:51:00,
2013-02-23 20:52:00,24.7,16.3,29.87,West,275,1.0,7.0,70,0.00,,---,0.00,VWS V14.00,2013-02-24 01:52:00,
2013-02-23 20:53:00,24.5,16.1,29.87,West,275,2.0,7.0,70,0.00,,---,0.00,VWS V14.00,2013-02-24 01:53:00,
2013-02-23 20:56:00,24.5,16.1,29.87,West,274,2.0,7.0,70,0.00,,---,0.00,VWS V14.00,2013-02-24 01:56:00,
2013-02-23 20:57:00,24.5,16.5,29.87,West,274,2.0,7.0,71,0.00,,---,0.00,VWS V14.00,2013-02-24 01:57:00,
2013-02-23 20:58:00,24.5,16.5,29.87,West,274,1.0,7.0,71,0.00,,---,0.00,VWS V14.00,2013-02-24 01:58:00,
2013-02-23 21:01:00,24.4,16.4,29.87,West,275,0.0,0.0,71,0.00,,---,0.00,VWS V14.00,2013-02-24 02:01:00,
2013-02-23 21:02:00,24.4,16.4,29.87,West,275,1.0,4.0,71,0.00,,---,0.00,VWS V14.00,2013-02-24 02:02:00,
2013-02-23 21:03:00,24.4,16.4,29.87,West,275,1.0,4.0,71,0.00,,---,0.00,VWS V14.00,2013-02-24 02:03:00,
2013-02-23 21:06:00,24.4,16.4,29.87,West,274,4.0,6.0,71,0.00,,---,0.00,VWS V14.00,2013-02-24 02:06:00,
2013-02-23 21:07:00,24.4,16.4,29.87,West,267,6.0,6.0,71,0.00,,---,0.00,VWS V14.00,2013-02-24 02:07:00,
2013-02-23 21:08:00,24.4,16.7,29.87,West,267,2.0,6.0,72,0.00,,---,0.00,VWS V14.00,2013-02-24 02:08:00,
2013-02-23 21:11:00,24.4,16.7,29.87,West,270,2.0,6.0,72,0.00,,---,0.00,VWS V14.00,2013-02-24 02:11:00,
2013-02-23 21:12:00,24.4,16.7,29.87,West,270,2.0,6.0,72,0.00,,---,0.00,VWS V14.00,2013-02-24 02:12:00,
2013-02-23 21:13:00,24.4,16.7,29.87,West,270,0.0,6.0,72,0.00,,---,0.00,VWS V14.00,2013-02-24 02:13:00,
2013-02-23 21:16:00,24.4,16.7,29.86,West,274,6.0,6.0,72,0.00,,---,0.00,VWS V14.00,2013-02-24 02:16:00,
2013-02-23 21:17:00,24.4,16.7,29.86,West,272,2.0,6.0,72,0.00,,---,0.00,VWS V14.00,2013-02-24 02:17:00,
2013-02-23 21:18:00,24.4,16.7,29.86,West,272,0.0,6.0,72,0.00,,---,0.00,VWS V14.00,2013-02-24 02:18:00,
2013-02-23 21:21:00,24.4,16.7,29.86,West,265,2.0,6.0,72,0.00,,---,0.00,VWS V14.00,2013-02-24 02:21:00,
2013-02-23 21:22:00,24.4,16.7,29.86,West,271,1.0,6.0,72,0.00,,---,0.00,VWS V14.00,2013-02-24 02:22:00,
2013-02-23 21:24:00,24.4,16.7,29.86,West,268,2.0,6.0,72,0.00,,---,0.00,VWS V14.00,2013-02-24 02:24:00,
2013-02-23 21:26:00,24.5,16.8,29.86,West,267,1.0,6.0,72,0.00,,---,0.00,VWS V14.00,2013-02-24 02:26:00,
2013-02-23 21:28:00,24.5,17.1,29.86,West,268,2.0,6.0,73,0.00,,---,0.00,VWS V14.00,2013-02-24 02:28:00,
2013-02-23 21:29:00,24.5,17.1,29.86,West,268,2.0,6.0,73,0.00,,---,0.00,VWS V14.00,2013-02-24 02:29:00,
2013-02-23 21:31:00,24.5,17.1,29.86,West,268,4.0,6.0,73,0.00,,---,0.00,VWS V14.00,2013-02-24 02:31:00,
2013-02-23 21:33:00,24.5,17.1,29.86,West,268,4.0,6.0,73,0.00,,---,0.00,VWS V14.00,2013-02-24 02:33:00,
2013-02-23 21:34:00,24.5,17.1,29.86,WSW,253,4.0,6.0,73,0.00,,---,0.00,VWS V14.00,2013-02-24 02:34:00,
2013-02-23 21:36:00,24.5,17.1,29.86,WNW,287,4.0,6.0,73,0.00,,---,0.00,VWS V14.00,2013-02-24 02:36:00,
2013-02-23 21:38:00,24.5,17.1,29.86,West,280,2.0,6.0,73,0.00,,---,0.00,VWS V14.00,2013-02-24 02:38:00,
2013-02-23 21:39:00,24.7,17.3,29.86,WNW,285,0.0,6.0,73,0.00,,---,0.00,VWS V14.00,2013-02-24 02:39:00,
2013-02-23 21:41:00,24.7,17.6,29.86,WNW,285,1.0,6.0,74,0.00,,---,0.00,VWS V14.00,2013-02-24 02:41:00,
2013-02-23 21:43:00,24.7,17.6,29.86,WNW,285,1.0,6.0,74,0.00,,---,0.00,VWS V14.00,2013-02-24 02:43:00,
2013-02-23 21:44:00,24.7,17.6,29.86,WNW,285,2.0,6.0,74,0.00,,---,0.00,VWS V14.00,2013-02-24 02:44:00,
2013-02-23 21:46:00,24.8,17.7,29.86,West,274,0.0,6.0,74,0.00,,---,0.00,VWS V14.00,2013-02-24 02:46:00,
2013-02-23 21:48:00,24.8,17.7,29.86,West,272,2.0,6.0,74,0.00,,---,0.00,VWS V14.00,2013-02-24 02:48:00,
2013-02-23 21:49:00,24.8,17.7,29.86,West,274,2.0,6.0,74,0.00,,---,0.00,VWS V14.00,2013-02-24 02:49:00,
2013-02-23 21:51:00,24.8,17.7,29.86,West,274,0.0,6.0,74,0.00,,---,0.00,VWS V14.00,2013-02-24 02:51:00,
2013-02-23 21:53:00,25.0,17.9,29.86,West,274,0.0,6.0,74,0.00,,---,0.00,VWS V14.00,2013-02-24 02:53:00,
2013-02-23 21:54:00,25.0,17.9,29.86,West,274,2.0,6.0,74,0.00,,---,0.00,VWS V14.00,2013-02-24 02:54:00,
2013-02-23 21:56:00,25.0,17.9,29.86,West,268,4.0,6.0,74,0.00,,---,0.00,VWS V14.00,2013-02-24 02:56:00,
2013-02-23 21:58:00,25.1,18.3,29.86,WSW,257,1.0,7.0,75,0.00,,---,0.00,VWS V14.00,2013-02-24 02:58:00,
2013-02-23 21:59:00,25.1,18.3,29.86,WSW,248,4.0,7.0,75,0.00,,---,0.00,VWS V14.00,2013-02-24 02:59:00,
2013-02-23 22:01:00,25.1,18.3,29.86,WNW,287,6.0,8.0,75,0.00,,---,0.00,VWS V14.00,2013-02-24 03:01:00,
2013-02-23 22:02:00,25.1,18.3,29.86,WNW,284,4.0,8.0,75,0.00,,---,0.00,VWS V14.00,2013-02-24 03:02:00,
2013-02-23 22:04:00,25.3,18.5,29.86,West,275,4.0,8.0,75,0.00,,---,0.00,VWS V14.00,2013-02-24 03:04:00,
2013-02-23 22:06:00,25.3,18.5,29.86,WSW,244,1.0,9.0,75,0.00,,---,0.00,VWS V14.00,2013-02-24 03:06:00,
2013-02-23 22:07:00,25.3,18.5,29.86,WSW,256,4.0,9.0,75,0.00,,---,0.00,VWS V14.00,2013-02-24 03:07:00,
2013-02-23 22:09:00,25.4,18.6,29.86,West,261,2.0,9.0,75,0.00,,---,0.00,VWS V14.00,2013-02-24 03:09:00,
2013-02-23 22:10:00,25.4,18.6,29.86,WSW,258,4.0,9.0,75,0.00,,---,0.00,VWS V14.00,2013-02-24 03:10:00,
2013-02-23 22:11:00,25.4,18.6,29.86,SW,236,6.0,9.0,75,0.00,,---,0.00,VWS V14.00,2013-02-24 03:11:00,
2013-02-23 22:12:00,25.4,18.9,29.86,SW,229,8.0,9.0,76,0.00,,---,0.00,VWS V14.00,2013-02-24 03:12:00,
2013-02-23 22:14:00,25.4,18.9,29.85,West,263,2.0,9.0,76,0.00,,---,0.00,VWS V14.00,2013-02-24 03:14:00,
2013-02-23 22:15:00,25.4,18.9,29.85,WSW,258,4.0,9.0,76,0.00,,---,0.00,VWS V14.00,2013-02-24 03:15:00,
2013-02-23 22:17:00,25.4,18.9,29.85,WSW,243,2.0,9.0,76,0.00,,---,0.00,VWS V14.00,2013-02-24 03:17:00,
2013-02-23 22:19:00,25.4,18.9,29.85,West,274,4.0,9.0,76,0.00,,---,0.00,VWS V14.00,2013-02-24 03:19:00,
2013-02-23 22:20:00,25.4,18.9,29.85,WNW,299,4.0,9.0,76,0.00,,---,0.00,VWS V14.00,2013-02-24 03:20:00,
2013-02-23 22:22:00,25.4,18.9,29.85,West,280,1.0,9.0,76,0.00,,---,0.00,VWS V14.00,2013-02-24 03:22:00,
2013-02-23 22:24:00,25.4,18.9,29.85,WSW,248,2.0,9.0,76,0.00,,---,0.00,VWS V14.00,2013-02-24 03:24:00,
2013-02-23 22:25:00,25.4,19.2,29.85,WSW,248,4.0,9.0,77,0.00,,---,0.00,VWS V14.00,2013-02-24 03:25:00,
2013-02-23 22:27:00,25.4,19.2,29.85,WSW,241,7.0,9.0,77,0.00,,---,0.00,VWS V14.00,2013-02-24 03:27:00,
2013-02-23 22:29:00,25.4,19.2,29.85,WNW,284,4.0,9.0,77,0.00,,---,0.00,VWS V14.00,2013-02-24 03:29:00,
2013-02-23 22:30:00,25.4,19.2,29.85,SSW,209,8.0,9.0,77,0.00,,---,0.00,VWS V14.00,2013-02-24 03:30:00,
2013-02-23 22:32:00,25.4,19.2,29.85,WSW,240,6.0,9.0,77,0.00,,---,0.00,VWS V14.00,2013-02-24 03:32:00,
2013-02-23 22:35:00,25.4,19.2,29.85,SW,236,2.0,9.0,77,0.00,,---,0.00,VWS V14.00,2013-02-24 03:35:00,
2013-02-23 22:37:00,25.4,19.5,29.85,SSW,212,4.0,9.0,78,0.00,,---,0.00,VWS V14.00,2013-02-24 03:37:00,
2013-02-23 22:40:00,25.4,19.5,29.85,West,261,7.0,9.0,78,0.00,,---,0.00,VWS V14.00,2013-02-24 03:40:00,
2013-02-23 22:41:00,25.4,19.5,29.85,SW,215,4.0,9.0,78,0.00,,---,0.00,VWS V14.00,2013-02-24 03:41:00,
2013-02-23 22:42:00,25.4,19.5,29.85,SW,219,4.0,9.0,78,0.00,,---,0.00,VWS V14.00,2013-02-24 03:42:00,
2013-02-23 22:45:00,25.4,19.8,29.85,SW,226,7.0,9.0,79,0.00,,---,0.00,VWS V14.00,2013-02-24 03:45:00,
2013-02-23 22:46:00,25.4,19.8,29.85,SW,227,7.0,10.0,79,0.00,,---,0.00,VWS V14.00,2013-02-24 03:46:00,
2013-02-23 22:47:00,25.4,19.8,29.85,WSW,251,6.0,10.0,79,0.00,,---,0.00,VWS V14.00,2013-02-24 03:47:00,
2013-02-23 22:50:00,25.4,19.8,29.85,SW,226,6.0,10.0,79,0.00,,---,0.00,VWS V14.00,2013-02-24 03:50:00,
2013-02-23 22:51:00,25.4,19.8,29.85,SW,229,2.0,10.0,79,0.00,,---,0.00,VWS V14.00,2013-02-24 03:51:00,
2013-02-23 22:52:00,25.4,19.8,29.85,West,260,1.0,10.0,79,0.00,,---,0.00,VWS V14.00,2013-02-24 03:52:00,
2013-02-23 22:55:00,25.6,20.0,29.85,SSW,213,7.0,10.0,79,0.00,,---,0.00,VWS V14.00,2013-02-24 03:55:00,
2013-02-23 22:56:00,25.6,20.0,29.85,SW,215,6.0,10.0,79,0.00,,---,0.00,VWS V14.00,2013-02-24 03:56:00,
2013-02-23 22:57:00,25.6,20.0,29.85,SW,234,6.0,10.0,79,0.00,,---,0.00,VWS V14.00,2013-02-24 03:57:00,
2013-02-23 23:00:00,25.6,20.0,29.84,SW,227,4.0,10.0,79,0.00,,---,0.00,VWS V14.00,2013-02-24 04:00:00,
2013-02-23 23:01:00,25.6,20.0,29.84,WSW,257,1.0,6.0,79,0.00,,---,0.00,VWS V14.00,2013-02-24 04:01:00,
2013-02-23 23:02:00,25.6,20.0,29.84,WSW,257,0.0,6.0,79,0.00,,---,0.00,VWS V14.00,2013-02-24 04:02:00,
2013-02-23 23:03:00,25.4,19.8,29.84,WSW,257,0.0,6.0,79,0.00,,---,0.00,VWS V14.00,2013-02-24 04:03:00,
2013-02-23 23:05:00,25.4,19.8,29.84,SSW,208,2.0,8.0,79,0.00,,---,0.00,VWS V14.00,2013-02-24 04:05:00,
2013-02-23 23:06:00,25.4,19.8,29.84,SSW,203,7.0,8.0,79,0.00,,---,0.00,VWS V14.00,2013-02-24 04:06:00,
2013-02-23 23:07:00,25.4,19.8,29.84,SSW,206,2.0,8.0,79,0.00,,---,0.00,VWS V14.00,2013-02-24 04:07:00,
2013-02-23 23:08:00,25.4,19.8,29.84,SSW,206,6.0,8.0,79,0.00,,---,0.00,VWS V14.00,2013-02-24 04:08:00,
2013-02-23 23:10:00,25.4,20.1,29.84,West,270,2.0,9.0,80,0.00,,---,0.00,VWS V14.00,2013-02-24 04:10:00,
2013-02-23 23:11:00,25.4,19.8,29.84,South,188,6.0,9.0,79,0.00,,---,0.00,VWS V14.00,2013-02-24 04:11:00,
2013-02-23 23:12:00,25.4,20.1,29.84,West,263,0.0,9.0,80,0.00,,---,0.00,VWS V14.00,2013-02-24 04:12:00,
2013-02-23 23:13:00,25.4,20.1,29.84,WSW,248,4.0,9.0,80,0.00,,---,0.00,VWS V14.00,2013-02-24 04:13:00,
2013-02-23 23:16:00,25.4,20.1,29.84,WSW,256,4.0,9.0,80,0.00,,---,0.00,VWS V14.00,2013-02-24 04:16:00,
2013-02-23 23:17:00,25.4,20.1,29.84,SW,232,2.0,9.0,80,0.00,,---,0.00,VWS V14.00,2013-02-24 04:17:00,
2013-02-23 23:18:00,25.4,20.1,29.84,SW,232,2.0,9.0,80,0.00,,---,0.00,VWS V14.00,2013-02-24 04:18:00,
2013-02-23 23:21:00,25.3,20.0,29.84,SW,236,2.0,9.0,80,0.00,,---,0.00,VWS V14.00,2013-02-24 04:21:00,
2013-02-23 23:22:00,25.3,20.0,29.84,West,275,4.0,9.0,80,0.00,,---,0.00,VWS V14.00,2013-02-24 04:22:00,
2013-02-23 23:23:00,25.3,20.0,29.84,West,272,4.0,9.0,80,0.00,,---,0.00,VWS V14.00,2013-02-24 04:23:00,
2013-02-23 23:26:00,25.3,20.0,29.84,West,265,4.0,9.0,80,0.00,,---,0.00,VWS V14.00,2013-02-24 04:26:00,
2013-02-23 23:27:00,25.3,20.0,29.84,West,264,1.0,9.0,80,0.00,,---,0.00,VWS V14.00,2013-02-24 04:27:00,
2013-02-23 23:28:00,25.3,20.0,29.84,West,264,0.0,9.0,80,0.00,,---,0.00,VWS V14.00,2013-02-24 04:28:00,
2013-02-23 23:31:00,25.1,19.8,29.84,West,261,2.0,9.0,80,0.00,,---,0.00,VWS V14.00,2013-02-24 04:31:00,
2013-02-23 23:32:00,25.1,19.8,29.84,West,261,4.0,9.0,80,0.00,,---,0.00,VWS V14.00,2013-02-24 04:32:00,
2013-02-23 23:33:00,25.0,19.7,29.84,WSW,254,2.0,9.0,80,0.00,,---,0.00,VWS V14.00,2013-02-24 04:33:00,
2013-02-23 23:36:00,25.0,19.7,29.84,SW,233,2.0,9.0,80,0.00,,---,0.00,VWS V14.00,2013-02-24 04:36:00,
2013-02-23 23:37:00,24.8,19.5,29.84,SW,233,1.0,9.0,80,0.00,,---,0.00,VWS V14.00,2013-02-24 04:37:00,
2013-02-23 23:38:00,24.8,19.5,29.84,SW,230,7.0,9.0,80,0.00,,---,0.00,VWS V14.00,2013-02-24 04:38:00,
2013-02-23 23:41:00,24.7,19.4,29.84,West,274,2.0,9.0,80,0.00,,---,0.00,VWS V14.00,2013-02-24 04:41:00,
2013-02-23 23:42:00,24.7,19.4,29.84,West,271,1.0,9.0,80,0.00,,---,0.00,VWS V14.00,2013-02-24 04:42:00,
2013-02-23 23:43:00,24.7,19.4,29.84,West,272,4.0,9.0,80,0.00,,---,0.00,VWS V14.00,2013-02-24 04:43:00,
2013-02-23 23:46:00,24.5,19.2,29.84,West,268,4.0,9.0,80,0.00,,---,0.00,VWS V14.00,2013-02-24 04:46:00,
2013-02-23 23:47:00,24.5,19.2,29.84,West,268,1.0,9.0,80,0.00,,---,0.00,VWS V14.00,2013-02-24 04:47:00,
2013-02-23 23:48:00,24.5,19.2,29.84,WSW,250,4.0,9.0,80,0.00,,---,0.00,VWS V14.00,2013-02-24 04:48:00,
2013-02-23 23:49:00,24.5,19.2,29.84,SW,224,6.0,9.0,80,0.00,,---,0.00,VWS V14.00,2013-02-24 04:49:00,
2013-02-23 23:51:00,24.4,19.1,29.84,SW,222,2.0,9.0,80,0.00,,---,0.00,VWS V14.00,2013-02-24 04:51:00,
2013-02-23 23:52:00,24.4,19.1,29.84,SW,222,1.0,9.0,80,0.00,,---,0.00,VWS V14.00,2013-02-24 04:52:00,
2013-02-23 23:53:00,24.2,18.9,29.84,SW,223,2.0,9.0,80,0.00,,---,0.00,VWS V14.00,2013-02-24 04:53:00,
2013-02-23 23:54:00,24.2,18.9,29.84,SW,223,2.0,9.0,80,0.00,,---,0.00,VWS V14.00,2013-02-24 04:54:00,
2013-02-23 23:56:00,24.2,18.9,29.84,WSW,248,2.0,9.0,80,0.00,,---,0.00,VWS V14.00,2013-02-24 04:56:00,
2013-02-23 23:57:00,24.2,18.9,29.84,WSW,243,4.0,9.0,80,0.00,,---,0.00,VWS V14.00,2013-02-24 04:57:00,
2013-02-23 23:59:00,24.1,18.8,29.84,WSW,244,1.0,9.0,80,0.00,,---,0.00,VWS V14.00,2013-02-24 04:59:00,